Time,TemperatureF,DewpointF,PressureIn,WindDirection,WindDirectionDegrees,WindSpeedMPH,WindSpeedGustMPH,Humidity,HourlyPrecipIn,Conditions,Clouds,dailyrainin,SoftwareType,DateUTC
2013-10-23 00:00:00,38.5,30.6,30.05,West,270,0.0,3.0,73,0.00,,,0.19,meteohub,2013-10-23 04:00:00,
2013-10-23 00:01:00,38.5,30.6,30.05,West,270,0.0,5.0,73,0.00,,,0.19,meteohub,2013-10-23 04:01:00,
2013-10-23 00:02:00,38.5,30.9,30.05,West,270,0.0,5.0,74,0.00,,,0.19,meteohub,2013-10-23 04:02:00,
2013-10-23 00:04:00,38.3,30.7,30.05,West,270,0.0,5.0,74,0.00,,,0.19,meteohub,2013-10-23 04:04:00,
2013-10-23 00:07:00,38.3,30.7,30.05,NW,315,0.0,5.0,74,0.00,,,0.00,meteohub,2013-10-23 04:07:00,
2013-10-23 00:08:00,38.1,30.6,30.05,NW,315,0.0,5.0,74,0.00,,,0.00,meteohub,2013-10-23 04:08:00,
2013-10-23 00:10:00,38.1,30.6,30.05,NW,315,0.0,5.0,74,0.00,,,0.00,meteohub,2013-10-23 04:10:00,
2013-10-23 00:11:00,37.9,30.7,30.05,NW,315,0.0,2.0,75,0.00,,,0.00,meteohub,2013-10-23 04:11:00,
2013-10-23 00:12:00,37.9,30.7,30.04,NW,315,0.0,2.0,75,0.00,,,0.00,meteohub,2013-10-23 04:12:00,
2013-10-23 00:13:00,37.9,30.7,30.04,NW,315,0.0,2.0,75,0.00,,,0.00,meteohub,2013-10-23 04:13:00,
2013-10-23 00:16:00,37.9,30.7,30.04,NW,315,0.0,0.0,75,0.00,,,0.00,meteohub,2013-10-23 04:16:00,
2013-10-23 00:18:00,37.8,30.6,30.04,North,0,1.0,0.0,75,0.00,,,0.00,meteohub,2013-10-23 04:18:00,
2013-10-23 00:20:00,37.8,30.6,30.04,North,0,1.0,0.0,75,0.00,,,0.00,meteohub,2013-10-23 04:20:00,
2013-10-23 00:22:00,37.8,30.6,30.04,North,0,1.0,2.0,75,0.00,,,0.00,meteohub,2013-10-23 04:22:00,
2013-10-23 00:24:00,37.8,30.6,30.04,West,270,0.0,2.0,75,0.00,,,0.00,meteohub,2013-10-23 04:24:00,
2013-10-23 00:25:00,37.8,30.2,30.04,West,270,1.0,2.0,74,0.00,,,0.00,meteohub,2013-10-23 04:25:00,
2013-10-23 00:26:00,37.8,30.6,30.04,West,270,1.0,2.0,75,0.00,,,0.00,meteohub,2013-10-23 04:26:00,
2013-10-23 00:28:00,37.8,30.6,30.04,NW,315,0.0,2.0,75,0.00,,,0.00,meteohub,2013-10-23 04:28:00,
2013-10-23 00:29:00,37.8,30.6,30.04,NW,315,0.0,2.0,75,0.00,,,0.00,meteohub,2013-10-23 04:29:00,
2013-10-23 00:30:00,37.8,30.6,30.04,North,0,1.0,2.0,75,0.00,,,0.00,meteohub,2013-10-23 04:30:00,
2013-10-23 00:31:00,37.8,30.6,30.04,North,0,1.0,2.0,75,0.00,,,0.00,meteohub,2013-10-23 04:31:00,
2013-10-23 00:33:00,37.8,30.6,30.04,North,0,1.0,2.0,75,0.00,,,0.00,meteohub,2013-10-23 04:33:00,
2013-10-23 00:34:00,37.8,30.6,30.04,North,0,1.0,2.0,75,0.00,,,0.00,meteohub,2013-10-23 04:34:00,
2013-10-23 00:36:00,37.6,30.7,30.04,North,0,0.0,2.0,76,0.00,,,0.00,meteohub,2013-10-23 04:36:00,
2013-10-23 00:37:00,37.6,30.7,30.04,NE,45,0.0,2.0,76,0.00,,,0.00,meteohub,2013-10-23 04:37:00,
2013-10-23 00:38:00,37.6,30.7,30.04,NW,315,1.0,2.0,76,0.00,,,0.00,meteohub,2013-10-23 04:38:00,
2013-10-23 00:39:00,37.6,30.7,30.04,NW,315,1.0,2.0,76,0.00,,,0.00,meteohub,2013-10-23 04:39:00,
2013-10-23 00:42:00,37.6,30.7,30.04,NE,45,1.0,1.0,76,0.00,,,0.00,meteohub,2013-10-23 04:42:00,
2013-10-23 00:43:00,37.6,30.7,30.04,North,0,0.0,1.0,76,0.00,,,0.00,meteohub,2013-10-23 04:43:00,
2013-10-23 00:45:00,37.4,30.6,30.04,NE,45,0.0,1.0,76,0.00,,,0.00,meteohub,2013-10-23 04:45:00,
2013-10-23 00:47:00,37.4,30.6,30.04,NE,45,0.0,1.0,76,0.00,,,0.00,meteohub,2013-10-23 04:47:00,
2013-10-23 00:48:00,37.4,30.6,30.04,NE,45,0.0,1.0,76,0.00,,,0.00,meteohub,2013-10-23 04:48:00,
2013-10-23 00:50:00,37.4,30.6,30.04,NE,45,0.0,1.0,76,0.00,,,0.00,meteohub,2013-10-23 04:50:00,
2013-10-23 00:52:00,37.2,30.4,30.04,NE,45,0.0,1.0,76,0.00,,,0.00,meteohub,2013-10-23 04:52:00,
2013-10-23 00:53:00,37.2,30.4,30.04,NE,45,0.0,1.0,76,0.00,,,0.00,meteohub,2013-10-23 04:53:00,
2013-10-23 00:54:00,37.2,30.4,30.04,NE,45,0.0,1.0,76,0.00,,,0.00,meteohub,2013-10-23 04:54:00,
2013-10-23 00:55:00,37.0,30.2,30.04,NE,45,0.0,1.0,76,0.00,,,0.00,meteohub,2013-10-23 04:55:00,
2013-10-23 00:57:00,37.0,30.2,30.04,NE,45,0.0,1.0,76,0.00,,,0.00,meteohub,2013-10-23 04:57:00,
2013-10-23 00:58:00,37.0,29.8,30.04,East,90,0.0,1.0,75,0.00,,,0.00,meteohub,2013-10-23 04:58:00,
2013-10-23 00:59:00,37.0,29.8,30.04,East,90,0.0,1.0,75,0.00,,,0.00,meteohub,2013-10-23 04:59:00,
2013-10-23 01:00:00,37.0,29.8,30.04,East,90,0.0,0.0,75,0.00,,,0.00,meteohub,2013-10-23 05:00:00,
2013-10-23 01:01:00,36.9,29.7,30.04,East,90,0.0,0.0,75,0.00,,,0.00,meteohub,2013-10-23 05:01:00,
2013-10-23 01:03:00,36.9,29.7,30.04,East,90,0.0,0.0,75,0.00,,,0.00,meteohub,2013-10-23 05:03:00,
2013-10-23 01:04:00,36.9,29.7,30.04,East,90,0.0,0.0,75,0.00,,,0.00,meteohub,2013-10-23 05:04:00,
2013-10-23 01:05:00,36.9,29.7,30.04,East,90,0.0,0.0,75,0.00,,,0.00,meteohub,2013-10-23 05:05:00,
2013-10-23 01:08:00,36.9,29.7,30.04,East,90,0.0,0.0,75,0.00,,,0.00,meteohub,2013-10-23 05:08:00,
2013-10-23 01:09:00,36.9,29.3,30.04,South,180,0.0,0.0,74,0.00,,,0.00,meteohub,2013-10-23 05:09:00,
2013-10-23 01:10:00,36.9,29.3,30.03,South,180,1.0,0.0,74,0.00,,,0.00,meteohub,2013-10-23 05:10:00,
2013-10-23 01:13:00,36.9,29.3,30.03,South,180,1.0,0.0,74,0.00,,,0.00,meteohub,2013-10-23 05:13:00,
2013-10-23 01:14:00,37.0,29.5,30.03,South,180,0.0,0.0,74,0.00,,,0.00,meteohub,2013-10-23 05:14:00,
2013-10-23 01:15:00,37.0,29.5,30.03,South,180,1.0,0.0,74,0.00,,,0.00,meteohub,2013-10-23 05:15:00,
2013-10-23 01:17:00,37.0,29.5,30.03,South,180,1.0,1.0,74,0.00,,,0.00,meteohub,2013-10-23 05:17:00,
2013-10-23 01:18:00,37.0,29.5,30.04,South,180,0.0,1.0,74,0.00,,,0.00,meteohub,2013-10-23 05:18:00,
2013-10-23 01:20:00,37.2,29.7,30.04,South,180,0.0,1.0,74,0.00,,,0.00,meteohub,2013-10-23 05:20:00,
2013-10-23 01:22:00,37.2,30.0,30.04,South,180,0.0,1.0,75,0.00,,,0.00,meteohub,2013-10-23 05:22:00,
2013-10-23 01:23:00,37.2,30.0,30.04,SE,135,1.0,1.0,75,0.00,,,0.00,meteohub,2013-10-23 05:23:00,
2013-10-23 01:25:00,37.2,30.4,30.04,SE,135,0.0,1.0,76,0.00,,,0.00,meteohub,2013-10-23 05:25:00,
2013-10-23 01:27:00,37.2,30.7,30.03,SE,135,1.0,1.0,77,0.00,,,0.00,meteohub,2013-10-23 05:27:00,
2013-10-23 01:28:00,37.2,30.7,30.03,SE,135,1.0,1.0,77,0.00,,,0.00,meteohub,2013-10-23 05:28:00,
2013-10-23 01:29:00,37.2,30.7,30.04,SE,135,1.0,1.0,77,0.00,,,0.00,meteohub,2013-10-23 05:29:00,
2013-10-23 01:30:00,37.2,30.7,30.03,East,90,0.0,1.0,77,0.00,,,0.00,meteohub,2013-10-23 05:30:00,
2013-10-23 01:32:00,37.2,30.4,30.03,East,90,0.0,1.0,76,0.00,,,0.00,meteohub,2013-10-23 05:32:00,
2013-10-23 01:34:00,37.2,30.4,30.03,SE,135,3.0,3.0,76,0.00,,,0.00,meteohub,2013-10-23 05:34:00,
2013-10-23 01:35:00,37.2,30.4,30.03,East,90,2.0,2.0,76,0.00,,,0.00,meteohub,2013-10-23 05:35:00,
2013-10-23 01:36:00,37.2,30.4,30.03,East,90,1.0,1.0,76,0.00,,,0.00,meteohub,2013-10-23 05:36:00,
2013-10-23 01:38:00,37.2,30.7,30.03,East,90,1.0,1.0,77,0.00,,,0.00,meteohub,2013-10-23 05:38:00,
2013-10-23 01:39:00,37.2,30.7,30.03,East,90,2.0,2.0,77,0.00,,,0.00,meteohub,2013-10-23 05:39:00,
2013-10-23 01:40:00,37.2,30.7,30.03,East,90,2.0,3.0,77,0.00,,,0.00,meteohub,2013-10-23 05:40:00,
2013-10-23 01:41:00,37.2,30.4,30.03,East,90,1.0,3.0,76,0.00,,,0.00,meteohub,2013-10-23 05:41:00,
2013-10-23 01:43:00,37.2,30.4,30.02,SE,135,2.0,3.0,76,0.00,,,0.00,meteohub,2013-10-23 05:43:00,
2013-10-23 01:44:00,37.2,30.4,30.03,SE,135,1.0,3.0,76,0.00,,,0.00,meteohub,2013-10-23 05:44:00,
2013-10-23 01:45:00,37.2,30.4,30.02,SE,135,0.0,3.0,76,0.00,,,0.00,meteohub,2013-10-23 05:45:00,
2013-10-23 01:47:00,37.4,30.6,30.02,NE,45,1.0,3.0,76,0.00,,,0.00,meteohub,2013-10-23 05:47:00,
2013-10-23 01:48:00,37.2,30.0,30.02,East,90,0.0,3.0,75,0.00,,,0.00,meteohub,2013-10-23 05:48:00,
2013-10-23 01:49:00,37.2,30.0,30.02,East,90,0.0,3.0,75,0.00,,,0.00,meteohub,2013-10-23 05:49:00,
2013-10-23 01:50:00,37.4,30.2,30.02,South,180,2.0,2.0,75,0.00,,,0.00,meteohub,2013-10-23 05:50:00,
2013-10-23 01:51:00,37.4,29.8,30.02,South,180,2.0,2.0,74,0.00,,,0.00,meteohub,2013-10-23 05:51:00,
2013-10-23 01:52:00,37.4,29.8,30.02,South,180,2.0,2.0,74,0.00,,,0.00,meteohub,2013-10-23 05:52:00,
2013-10-23 01:55:00,37.6,29.7,30.02,South,180,2.0,2.0,73,0.00,,,0.00,meteohub,2013-10-23 05:55:00,
2013-10-23 01:56:00,37.6,29.7,30.02,South,180,2.0,2.0,73,0.00,,,0.00,meteohub,2013-10-23 05:56:00,
2013-10-23 01:57:00,37.6,30.0,30.02,South,180,1.0,2.0,74,0.00,,,0.00,meteohub,2013-10-23 05:57:00,
2013-10-23 02:00:00,37.6,30.4,30.02,South,180,0.0,2.0,75,0.00,,,0.00,meteohub,2013-10-23 06:00:00,
2013-10-23 02:01:00,37.6,30.4,30.02,South,180,0.0,2.0,75,0.00,,,0.00,meteohub,2013-10-23 06:01:00,
2013-10-23 02:02:00,37.6,30.7,30.02,East,90,0.0,2.0,76,0.00,,,0.00,meteohub,2013-10-23 06:02:00,
2013-10-23 02:04:00,37.4,30.9,30.02,East,90,0.0,2.0,77,0.00,,,0.00,meteohub,2013-10-23 06:04:00,
2013-10-23 02:06:00,37.4,30.6,30.02,East,90,0.0,2.0,76,0.00,,,0.00,meteohub,2013-10-23 06:06:00,
2013-10-23 02:07:00,37.2,30.4,30.02,East,90,0.0,2.0,76,0.00,,,0.00,meteohub,2013-10-23 06:07:00,
2013-10-23 02:08:00,37.2,30.7,30.02,East,90,0.0,2.0,77,0.00,,,0.00,meteohub,2013-10-23 06:08:00,
2013-10-23 02:09:00,37.2,30.7,30.02,East,90,0.0,2.0,77,0.00,,,0.00,meteohub,2013-10-23 06:09:00,
2013-10-23 02:12:00,37.0,30.6,30.02,East,90,0.0,2.0,77,0.00,,,0.00,meteohub,2013-10-23 06:12:00,
2013-10-23 02:13:00,36.9,30.4,30.02,East,90,0.0,2.0,77,0.00,,,0.00,meteohub,2013-10-23 06:13:00,
2013-10-23 02:14:00,36.9,30.4,30.02,East,90,0.0,2.0,77,0.00,,,0.00,meteohub,2013-10-23 06:14:00,
2013-10-23 02:15:00,36.9,30.4,30.02,East,90,0.0,2.0,77,0.00,,,0.00,meteohub,2013-10-23 06:15:00,
2013-10-23 02:17:00,36.9,30.4,30.02,East,90,0.0,0.0,77,0.00,,,0.00,meteohub,2013-10-23 06:17:00,
2013-10-23 02:19:00,36.9,30.4,30.01,East,90,0.0,0.0,77,0.00,,,0.00,meteohub,2013-10-23 06:19:00,
2013-10-23 02:20:00,36.9,30.4,30.01,East,90,0.0,0.0,77,0.00,,,0.00,meteohub,2013-10-23 06:20:00,
2013-10-23 02:22:00,36.9,30.4,30.01,East,90,0.0,0.0,77,0.00,,,0.00,meteohub,2013-10-23 06:22:00,
2013-10-23 02:23:00,36.9,30.4,30.01,East,90,0.0,0.0,77,0.00,,,0.00,meteohub,2013-10-23 06:23:00,
2013-10-23 02:25:00,36.3,30.2,30.01,NE,45,0.0,0.0,78,0.00,,,0.00,meteohub,2013-10-23 06:25:00,
2013-10-23 02:26:00,36.3,30.2,30.01,NE,45,0.0,0.0,78,0.00,,,0.00,meteohub,2013-10-23 06:26:00,
2013-10-23 02:27:00,36.3,29.8,30.01,NE,45,0.0,0.0,77,0.00,,,0.00,meteohub,2013-10-23 06:27:00,
2013-10-23 02:28:00,36.3,29.8,30.01,NE,45,0.0,0.0,77,0.00,,,0.00,meteohub,2013-10-23 06:28:00,
2013-10-23 02:29:00,36.3,30.2,30.01,NE,45,0.0,0.0,78,0.00,,,0.00,meteohub,2013-10-23 06:29:00,
2013-10-23 02:30:00,36.3,29.8,30.01,NE,45,0.0,0.0,77,0.00,,,0.00,meteohub,2013-10-23 06:30:00,
2013-10-23 02:31:00,36.3,29.8,30.01,NE,45,0.0,0.0,77,0.00,,,0.00,meteohub,2013-10-23 06:31:00,
2013-10-23 02:33:00,36.3,29.8,30.01,NE,45,0.0,0.0,77,0.00,,,0.00,meteohub,2013-10-23 06:33:00,
2013-10-23 02:35:00,36.3,29.8,30.01,NE,45,0.0,0.0,77,0.00,,,0.00,meteohub,2013-10-23 06:35:00,
2013-10-23 02:36:00,36.3,29.8,30.01,East,90,0.0,0.0,77,0.00,,,0.00,meteohub,2013-10-23 06:36:00,
2013-10-23 02:38:00,36.3,30.2,30.01,SE,135,0.0,0.0,78,0.00,,,0.00,meteohub,2013-10-23 06:38:00,
2013-10-23 02:40:00,36.3,30.2,30.01,SE,135,0.0,0.0,78,0.00,,,0.00,meteohub,2013-10-23 06:40:00,
2013-10-23 02:41:00,36.1,30.2,30.01,SE,135,0.0,0.0,79,0.00,,,0.00,meteohub,2013-10-23 06:41:00,
2013-10-23 02:42:00,36.1,30.2,30.01,SE,135,0.0,0.0,79,0.00,,,0.00,meteohub,2013-10-23 06:42:00,
2013-10-23 02:44:00,36.1,30.6,30.01,SE,135,0.0,0.0,80,0.00,,,0.00,meteohub,2013-10-23 06:44:00,
2013-10-23 02:45:00,36.1,30.6,30.01,SE,135,0.0,0.0,80,0.00,,,0.00,meteohub,2013-10-23 06:45:00,
2013-10-23 02:46:00,36.1,30.6,30.01,SE,135,0.0,0.0,80,0.00,,,0.00,meteohub,2013-10-23 06:46:00,
2013-10-23 02:47:00,36.1,30.6,30.01,SE,135,0.0,0.0,80,0.00,,,0.00,meteohub,2013-10-23 06:47:00,
2013-10-23 02:48:00,36.0,30.4,30.01,SE,135,0.0,0.0,80,0.00,,,0.00,meteohub,2013-10-23 06:48:00,
2013-10-23 02:51:00,36.1,30.2,30.01,South,180,1.0,1.0,79,0.00,,,0.00,meteohub,2013-10-23 06:51:00,
2013-10-23 02:52:00,36.1,30.2,30.01,South,180,1.0,1.0,79,0.00,,,0.00,meteohub,2013-10-23 06:52:00,
2013-10-23 02:53:00,36.1,30.2,30.01,WSW,248,1.0,1.0,79,0.00,,,0.00,meteohub,2013-10-23 06:53:00,
2013-10-23 02:57:00,36.1,30.2,30.00,East,90,0.0,1.0,79,0.00,,,0.00,meteohub,2013-10-23 06:57:00,
2013-10-23 02:58:00,36.1,30.2,30.00,East,90,0.0,1.0,79,0.00,,,0.00,meteohub,2013-10-23 06:58:00,
2013-10-23 02:59:00,36.1,30.2,30.00,SE,135,1.0,1.0,79,0.00,,,0.00,meteohub,2013-10-23 06:59:00,
2013-10-23 03:02:00,36.3,30.4,30.01,East,90,0.0,2.0,79,0.00,,,0.00,meteohub,2013-10-23 07:02:00,
2013-10-23 03:03:00,36.3,30.4,30.01,East,90,0.0,2.0,79,0.00,,,0.00,meteohub,2013-10-23 07:03:00,
2013-10-23 03:04:00,36.3,30.4,30.00,East,90,0.0,2.0,79,0.00,,,0.00,meteohub,2013-10-23 07:04:00,
2013-10-23 03:05:00,36.3,30.4,30.00,East,90,0.0,2.0,79,0.00,,,0.00,meteohub,2013-10-23 07:05:00,
2013-10-23 03:08:00,36.3,30.7,30.00,SE,135,1.0,2.0,80,0.00,,,0.00,meteohub,2013-10-23 07:08:00,
2013-10-23 03:10:00,36.3,30.4,30.01,SE,135,1.0,2.0,79,0.00,,,0.00,meteohub,2013-10-23 07:10:00,
2013-10-23 03:11:00,36.3,30.7,30.01,SE,135,1.0,2.0,80,0.00,,,0.00,meteohub,2013-10-23 07:11:00,
2013-10-23 03:12:00,36.3,30.7,30.00,SE,135,1.0,2.0,80,0.00,,,0.00,meteohub,2013-10-23 07:12:00,
2013-10-23 03:13:00,36.3,30.7,30.00,SE,135,0.0,2.0,80,0.00,,,0.00,meteohub,2013-10-23 07:13:00,
2013-10-23 03:14:00,36.3,30.7,30.00,SE,135,0.0,2.0,80,0.00,,,0.00,meteohub,2013-10-23 07:14:00,
2013-10-23 03:15:00,36.5,30.9,30.00,WSW,248,2.0,2.0,80,0.00,,,0.00,meteohub,2013-10-23 07:15:00,
2013-10-23 03:16:00,36.5,30.9,30.00,WSW,248,2.0,2.0,80,0.00,,,0.00,meteohub,2013-10-23 07:16:00,
2013-10-23 03:19:00,36.7,30.7,30.00,South,180,0.0,1.0,79,0.00,,,0.00,meteohub,2013-10-23 07:19:00,
2013-10-23 03:20:00,36.7,30.7,30.00,East,90,0.0,2.0,79,0.00,,,0.00,meteohub,2013-10-23 07:20:00,
2013-10-23 03:21:00,36.7,30.7,30.00,WSW,248,1.0,2.0,79,0.00,,,0.00,meteohub,2013-10-23 07:21:00,
2013-10-23 03:22:00,36.7,30.7,30.00,SE,135,1.0,2.0,79,0.00,,,0.00,meteohub,2013-10-23 07:22:00,
2013-10-23 03:24:00,36.7,30.6,30.00,SE,135,0.0,2.0,78,0.00,,,0.00,meteohub,2013-10-23 07:24:00,
2013-10-23 03:25:00,36.9,30.6,29.99,SE,135,0.0,2.0,78,0.00,,,0.00,meteohub,2013-10-23 07:25:00,
2013-10-23 03:26:00,36.9,30.6,30.00,South,180,2.0,2.0,78,0.00,,,0.00,meteohub,2013-10-23 07:26:00,
2013-10-23 03:27:00,36.9,30.4,30.00,SE,135,2.0,2.0,77,0.00,,,0.00,meteohub,2013-10-23 07:27:00,
2013-10-23 03:30:00,37.0,30.7,29.99,East,90,1.0,2.0,78,0.00,,,0.00,meteohub,2013-10-23 07:30:00,
2013-10-23 03:31:00,37.0,30.7,29.99,East,90,1.0,2.0,78,0.00,,,0.00,meteohub,2013-10-23 07:31:00,
2013-10-23 03:32:00,37.0,30.6,29.99,South,180,1.0,2.0,77,0.00,,,0.00,meteohub,2013-10-23 07:32:00,
2013-10-23 03:33:00,37.0,30.7,30.00,South,180,1.0,2.0,78,0.00,,,0.00,meteohub,2013-10-23 07:33:00,
2013-10-23 03:37:00,37.0,30.7,29.99,South,180,1.0,2.0,78,0.00,,,0.00,meteohub,2013-10-23 07:37:00,
2013-10-23 03:39:00,37.0,31.1,29.99,SE,135,1.0,2.0,79,0.00,,,0.00,meteohub,2013-10-23 07:39:00,
2013-10-23 03:40:00,37.0,30.7,29.99,SE,135,1.0,2.0,78,0.00,,,0.00,meteohub,2013-10-23 07:40:00,
2013-10-23 03:42:00,37.0,30.7,29.99,SE,135,0.0,2.0,78,0.00,,,0.00,meteohub,2013-10-23 07:42:00,
2013-10-23 03:43:00,37.0,30.7,29.99,SE,135,0.0,2.0,78,0.00,,,0.00,meteohub,2013-10-23 07:43:00,
2013-10-23 03:44:00,37.0,30.7,29.99,SSE,158,0.0,2.0,78,0.00,,,0.00,meteohub,2013-10-23 07:44:00,
2013-10-23 03:45:00,37.0,30.7,29.99,SSE,158,0.0,2.0,78,0.00,,,0.00,meteohub,2013-10-23 07:45:00,
2013-10-23 03:48:00,36.9,30.6,29.99,East,90,1.0,2.0,78,0.00,,,0.00,meteohub,2013-10-23 07:48:00,
2013-10-23 03:49:00,36.9,30.6,29.99,South,180,1.0,2.0,78,0.00,,,0.00,meteohub,2013-10-23 07:49:00,
2013-10-23 03:50:00,36.9,30.4,29.99,South,180,1.0,2.0,77,0.00,,,0.00,meteohub,2013-10-23 07:50:00,
2013-10-23 03:51:00,36.9,30.4,29.99,South,180,1.0,2.0,77,0.00,,,0.00,meteohub,2013-10-23 07:51:00,
2013-10-23 03:54:00,36.9,30.4,29.99,East,90,0.0,2.0,77,0.00,,,0.00,meteohub,2013-10-23 07:54:00,
2013-10-23 03:55:00,36.9,30.6,29.99,East,90,1.0,2.0,78,0.00,,,0.00,meteohub,2013-10-23 07:55:00,
2013-10-23 03:56:00,36.9,30.6,29.99,East,90,0.0,2.0,78,0.00,,,0.00,meteohub,2013-10-23 07:56:00,
2013-10-23 03:57:00,36.9,30.6,29.99,East,90,0.0,2.0,78,0.00,,,0.00,meteohub,2013-10-23 07:57:00,
2013-10-23 03:59:00,36.9,30.6,29.99,South,180,2.0,2.0,78,0.00,,,0.00,meteohub,2013-10-23 07:59:00,
2013-10-23 04:00:00,36.9,30.6,29.99,South,180,1.0,2.0,78,0.00,,,0.00,meteohub,2013-10-23 08:00:00,
2013-10-23 04:01:00,36.9,30.6,29.99,South,180,1.0,2.0,78,0.00,,,0.00,meteohub,2013-10-23 08:01:00,
2013-10-23 04:02:00,36.9,30.6,29.99,South,180,2.0,2.0,78,0.00,,,0.00,meteohub,2013-10-23 08:02:00,
2013-10-23 04:05:00,36.9,30.6,29.99,South,180,1.0,2.0,78,0.00,,,0.00,meteohub,2013-10-23 08:05:00,
2013-10-23 04:06:00,36.9,30.6,29.98,East,90,1.0,2.0,78,0.00,,,0.00,meteohub,2013-10-23 08:06:00,
2013-10-23 04:07:00,36.9,30.6,29.98,South,180,2.0,2.0,78,0.00,,,0.00,meteohub,2013-10-23 08:07:00,
2013-10-23 04:08:00,36.9,30.6,29.98,South,180,2.0,2.0,78,0.00,,,0.00,meteohub,2013-10-23 08:08:00,
2013-10-23 04:12:00,36.9,30.6,29.98,South,180,0.0,2.0,78,0.00,,,0.00,meteohub,2013-10-23 08:12:00,
2013-10-23 04:13:00,36.9,30.6,29.98,South,180,0.0,2.0,78,0.00,,,0.00,meteohub,2013-10-23 08:13:00,
2013-10-23 04:14:00,36.9,30.6,29.98,WSW,248,0.0,2.0,78,0.00,,,0.00,meteohub,2013-10-23 08:14:00,
2013-10-23 04:15:00,36.9,30.6,29.98,South,180,1.0,2.0,78,0.00,,,0.00,meteohub,2013-10-23 08:15:00,
2013-10-23 04:18:00,36.9,30.9,29.98,SE,135,0.0,2.0,79,0.00,,,0.00,meteohub,2013-10-23 08:18:00,
2013-10-23 04:20:00,36.9,31.3,29.98,SE,135,1.0,2.0,80,0.00,,,0.00,meteohub,2013-10-23 08:20:00,
2013-10-23 04:22:00,36.9,31.3,29.97,East,90,1.0,2.0,80,0.00,,,0.00,meteohub,2013-10-23 08:22:00,
2013-10-23 04:23:00,36.9,31.3,29.98,East,90,2.0,2.0,80,0.00,,,0.00,meteohub,2013-10-23 08:23:00,
2013-10-23 04:26:00,36.7,30.7,29.98,South,180,2.0,2.0,79,0.00,,,0.00,meteohub,2013-10-23 08:26:00,
2013-10-23 04:27:00,36.7,30.7,29.98,SE,135,2.0,2.0,79,0.00,,,0.00,meteohub,2013-10-23 08:27:00,
2013-10-23 04:28:00,36.7,30.7,29.98,SE,135,2.0,2.0,79,0.00,,,0.00,meteohub,2013-10-23 08:28:00,
2013-10-23 04:29:00,36.7,30.7,29.98,SE,135,1.0,2.0,79,0.00,,,0.00,meteohub,2013-10-23 08:29:00,
2013-10-23 04:30:00,36.7,30.7,29.98,SE,135,1.0,2.0,79,0.00,,,0.00,meteohub,2013-10-23 08:30:00,
2013-10-23 04:32:00,36.7,30.7,29.98,East,90,2.0,2.0,79,0.00,,,0.00,meteohub,2013-10-23 08:32:00,
2013-10-23 04:34:00,36.7,31.1,29.98,SE,135,0.0,2.0,80,0.00,,,0.00,meteohub,2013-10-23 08:34:00,
2013-10-23 04:35:00,36.7,31.1,29.98,SE,135,0.0,2.0,80,0.00,,,0.00,meteohub,2013-10-23 08:35:00,
2013-10-23 04:37:00,36.5,30.6,29.98,NE,45,1.0,2.0,79,0.00,,,0.00,meteohub,2013-10-23 08:37:00,
2013-10-23 04:39:00,36.5,30.6,29.97,East,90,1.0,2.0,79,0.00,,,0.00,meteohub,2013-10-23 08:39:00,
2013-10-23 04:40:00,36.5,30.6,29.97,East,90,2.0,2.0,79,0.00,,,0.00,meteohub,2013-10-23 08:40:00,
2013-10-23 04:42:00,36.5,30.9,29.97,East,90,0.0,2.0,80,0.00,,,0.00,meteohub,2013-10-23 08:42:00,
2013-10-23 04:43:00,36.5,30.9,29.98,East,90,0.0,2.0,80,0.00,,,0.00,meteohub,2013-10-23 08:43:00,
2013-10-23 04:45:00,36.5,30.9,29.97,East,90,0.0,2.0,80,0.00,,,0.00,meteohub,2013-10-23 08:45:00,
2013-10-23 04:46:00,36.5,30.9,29.97,East,90,0.0,2.0,80,0.00,,,0.00,meteohub,2013-10-23 08:46:00,
2013-10-23 04:48:00,36.5,31.3,29.97,South,180,0.0,2.0,81,0.00,,,0.00,meteohub,2013-10-23 08:48:00,
2013-10-23 04:50:00,36.3,30.7,29.98,South,180,2.0,2.0,80,0.00,,,0.00,meteohub,2013-10-23 08:50:00,
2013-10-23 04:51:00,36.3,30.7,29.97,South,180,2.0,2.0,80,0.00,,,0.00,meteohub,2013-10-23 08:51:00,
2013-10-23 04:55:00,36.5,30.9,29.98,SE,135,2.0,2.0,80,0.00,,,0.00,meteohub,2013-10-23 08:55:00,
2013-10-23 04:56:00,36.5,30.9,29.98,SE,135,2.0,2.0,80,0.00,,,0.00,meteohub,2013-10-23 08:56:00,
2013-10-23 04:57:00,36.3,30.7,29.97,SE,135,1.0,2.0,80,0.00,,,0.00,meteohub,2013-10-23 08:57:00,
2013-10-23 04:59:00,36.3,30.7,29.97,East,90,2.0,2.0,80,0.00,,,0.00,meteohub,2013-10-23 08:59:00,
2013-10-23 05:01:00,36.3,30.7,29.97,East,90,2.0,2.0,80,0.00,,,0.00,meteohub,2013-10-23 09:01:00,
2013-10-23 05:02:00,36.3,30.7,29.97,East,90,2.0,2.0,80,0.00,,,0.00,meteohub,2013-10-23 09:02:00,
2013-10-23 05:04:00,36.3,30.7,29.97,East,90,2.0,2.0,80,0.00,,,0.00,meteohub,2013-10-23 09:04:00,
2013-10-23 05:06:00,36.3,30.7,29.97,East,90,2.0,2.0,80,0.00,,,0.00,meteohub,2013-10-23 09:06:00,
2013-10-23 05:07:00,36.3,30.7,29.97,East,90,2.0,2.0,80,0.00,,,0.00,meteohub,2013-10-23 09:07:00,
2013-10-23 05:08:00,36.3,31.1,29.97,East,90,0.0,2.0,81,0.00,,,0.00,meteohub,2013-10-23 09:08:00,
2013-10-23 05:09:00,36.3,31.1,29.97,East,90,0.0,2.0,81,0.00,,,0.00,meteohub,2013-10-23 09:09:00,
2013-10-23 05:12:00,36.1,31.1,29.97,East,90,0.0,2.0,82,0.00,,,0.00,meteohub,2013-10-23 09:12:00,
2013-10-23 05:14:00,36.1,31.1,29.97,SE,135,0.0,2.0,82,0.00,,,0.00,meteohub,2013-10-23 09:14:00,
2013-10-23 05:15:00,36.1,31.5,29.97,SE,135,0.0,2.0,83,0.00,,,0.00,meteohub,2013-10-23 09:15:00,
2013-10-23 05:17:00,36.1,31.5,29.96,SE,135,0.0,2.0,83,0.00,,,0.00,meteohub,2013-10-23 09:17:00,
2013-10-23 05:18:00,36.1,31.5,29.96,SE,135,0.0,2.0,83,0.00,,,0.00,meteohub,2013-10-23 09:18:00,
2013-10-23 05:20:00,36.1,31.5,29.97,South,180,2.0,2.0,83,0.00,,,0.00,meteohub,2013-10-23 09:20:00,
2013-10-23 05:22:00,36.1,31.5,29.97,South,180,1.0,2.0,83,0.00,,,0.00,meteohub,2013-10-23 09:22:00,
2013-10-23 05:23:00,36.1,31.5,29.96,South,180,0.0,2.0,83,0.00,,,0.00,meteohub,2013-10-23 09:23:00,
2013-10-23 05:24:00,36.0,31.3,29.96,South,180,0.0,2.0,83,0.00,,,0.00,meteohub,2013-10-23 09:24:00,
2013-10-23 05:25:00,36.0,31.6,29.96,SE,135,0.0,2.0,84,0.00,,,0.00,meteohub,2013-10-23 09:25:00,
2013-10-23 05:27:00,36.0,31.6,29.96,South,180,1.0,2.0,84,0.00,,,0.00,meteohub,2013-10-23 09:27:00,
2013-10-23 05:28:00,36.0,31.6,29.96,South,180,2.0,2.0,84,0.00,,,0.00,meteohub,2013-10-23 09:28:00,
2013-10-23 05:29:00,36.0,31.6,29.96,South,180,2.0,2.0,84,0.00,,,0.00,meteohub,2013-10-23 09:29:00,
2013-10-23 05:30:00,36.0,31.6,29.96,South,180,2.0,2.0,84,0.00,,,0.00,meteohub,2013-10-23 09:30:00,
2013-10-23 05:31:00,36.0,31.6,29.96,South,180,2.0,2.0,84,0.00,,,0.00,meteohub,2013-10-23 09:31:00,
2013-10-23 05:33:00,36.0,31.8,29.96,South,180,2.0,2.0,85,0.00,,,0.00,meteohub,2013-10-23 09:33:00,
2013-10-23 05:34:00,36.0,31.8,29.97,South,180,1.0,2.0,85,0.00,,,0.00,meteohub,2013-10-23 09:34:00,
2013-10-23 05:35:00,35.8,31.6,29.96,South,180,2.0,2.0,85,0.00,,,0.00,meteohub,2013-10-23 09:35:00,
2013-10-23 05:37:00,35.8,31.6,29.96,SE,135,2.0,2.0,85,0.00,,,0.00,meteohub,2013-10-23 09:37:00,
2013-10-23 05:38:00,35.8,31.6,29.97,South,180,1.0,2.0,85,0.00,,,0.00,meteohub,2013-10-23 09:38:00,
2013-10-23 05:39:00,35.8,31.6,29.96,South,180,2.0,2.0,85,0.00,,,0.00,meteohub,2013-10-23 09:39:00,
2013-10-23 05:40:00,35.8,31.6,29.96,South,180,1.0,2.0,85,0.00,,,0.00,meteohub,2013-10-23 09:40:00,
2013-10-23 05:42:00,35.8,32.0,29.97,SE,135,2.0,2.0,86,0.00,,,0.00,meteohub,2013-10-23 09:42:00,
2013-10-23 05:43:00,35.8,32.0,29.97,SE,135,2.0,2.0,86,0.00,,,0.00,meteohub,2013-10-23 09:43:00,
2013-10-23 05:45:00,35.8,32.0,29.96,SE,135,2.0,2.0,86,0.00,,,0.00,meteohub,2013-10-23 09:45:00,
2013-10-23 05:46:00,35.8,32.0,29.97,SE,135,0.0,2.0,86,0.00,,,0.00,meteohub,2013-10-23 09:46:00,
2013-10-23 05:50:00,35.8,32.0,29.97,SE,135,0.0,2.0,86,0.00,,,0.00,meteohub,2013-10-23 09:50:00,
2013-10-23 05:51:00,35.8,32.0,29.96,SE,135,0.0,2.0,86,0.00,,,0.00,meteohub,2013-10-23 09:51:00,
2013-10-23 05:52:00,35.8,32.0,29.96,SE,135,2.0,2.0,86,0.00,,,0.00,meteohub,2013-10-23 09:52:00,
2013-10-23 05:53:00,35.8,32.0,29.97,SE,135,2.0,2.0,86,0.00,,,0.00,meteohub,2013-10-23 09:53:00,
2013-10-23 05:56:00,35.8,32.4,29.96,South,180,2.0,2.0,87,0.00,,,0.00,meteohub,2013-10-23 09:56:00,
2013-10-23 05:57:00,35.8,32.4,29.96,South,180,2.0,2.0,87,0.00,,,0.00,meteohub,2013-10-23 09:57:00,
2013-10-23 05:59:00,35.8,32.4,29.97,SE,135,2.0,2.0,87,0.00,,,0.00,meteohub,2013-10-23 09:59:00,
2013-10-23 06:00:00,35.8,32.4,29.97,SE,135,2.0,2.0,87,0.00,,,0.00,meteohub,2013-10-23 10:00:00,
2013-10-23 06:01:00,35.8,32.4,29.97,SE,135,2.0,2.0,87,0.00,,,0.00,meteohub,2013-10-23 10:01:00,
2013-10-23 06:02:00,35.8,32.4,29.97,SE,135,2.0,2.0,87,0.00,,,0.00,meteohub,2013-10-23 10:02:00,
2013-10-23 06:05:00,35.8,32.0,29.97,South,180,1.0,2.0,86,0.00,,,0.00,meteohub,2013-10-23 10:05:00,
2013-10-23 06:07:00,36.0,32.2,29.97,South,180,2.0,2.0,86,0.00,,,0.00,meteohub,2013-10-23 10:07:00,
2013-10-23 06:08:00,36.0,32.2,29.97,WSW,248,3.0,3.0,86,0.00,,,0.00,meteohub,2013-10-23 10:08:00,
2013-10-23 06:10:00,36.1,32.7,29.96,SE,135,2.0,3.0,87,0.00,,,0.00,meteohub,2013-10-23 10:10:00,
2013-10-23 06:11:00,36.1,32.7,29.96,SE,135,1.0,3.0,87,0.00,,,0.00,meteohub,2013-10-23 10:11:00,
2013-10-23 06:12:00,36.1,32.4,29.96,East,90,1.0,3.0,86,0.00,,,0.00,meteohub,2013-10-23 10:12:00,
2013-10-23 06:13:00,36.1,32.4,29.96,East,90,0.0,3.0,86,0.00,,,0.00,meteohub,2013-10-23 10:13:00,
2013-10-23 06:14:00,36.1,32.4,29.96,East,90,0.0,3.0,86,0.00,,,0.00,meteohub,2013-10-23 10:14:00,
2013-10-23 06:17:00,36.1,32.4,29.96,South,180,2.0,3.0,86,0.00,,,0.00,meteohub,2013-10-23 10:17:00,
2013-10-23 06:18:00,36.1,32.4,29.96,North,0,2.0,3.0,86,0.00,,,0.00,meteohub,2013-10-23 10:18:00,
2013-10-23 06:19:00,36.1,32.4,29.96,West,270,4.0,4.0,86,0.00,,,0.00,meteohub,2013-10-23 10:19:00,
2013-10-23 06:22:00,36.1,32.4,29.96,WSW,248,0.0,3.0,86,0.00,,,0.00,meteohub,2013-10-23 10:22:00,
2013-10-23 06:23:00,36.1,32.4,29.96,WSW,248,0.0,3.0,86,0.00,,,0.00,meteohub,2013-10-23 10:23:00,
2013-10-23 06:24:00,36.1,32.4,29.96,West,270,0.0,3.0,86,0.00,,,0.00,meteohub,2013-10-23 10:24:00,
2013-10-23 06:25:00,36.1,32.4,29.96,NW,315,0.0,3.0,86,0.00,,,0.00,meteohub,2013-10-23 10:25:00,
2013-10-23 06:27:00,36.3,32.5,29.96,North,0,1.0,4.0,86,0.00,,,0.00,meteohub,2013-10-23 10:27:00,
2013-10-23 06:29:00,36.3,32.9,29.96,SE,135,0.0,4.0,87,0.00,,,0.00,meteohub,2013-10-23 10:29:00,
2013-10-23 06:30:00,36.3,32.9,29.96,South,180,0.0,4.0,87,0.00,,,0.00,meteohub,2013-10-23 10:30:00,
2013-10-23 06:31:00,36.3,32.9,29.96,South,180,0.0,4.0,87,0.00,,,0.00,meteohub,2013-10-23 10:31:00,
2013-10-23 06:32:00,36.3,32.9,29.96,South,180,0.0,4.0,87,0.00,,,0.00,meteohub,2013-10-23 10:32:00,
2013-10-23 06:33:00,36.1,32.4,29.96,South,180,0.0,4.0,86,0.00,,,0.00,meteohub,2013-10-23 10:33:00,
2013-10-23 06:35:00,36.3,32.9,29.97,North,0,2.0,4.0,87,0.00,,,0.00,meteohub,2013-10-23 10:35:00,
2013-10-23 06:36:00,36.3,32.9,29.97,North,0,1.0,1.0,87,0.00,,,0.00,meteohub,2013-10-23 10:36:00,
2013-10-23 06:37:00,36.3,32.9,29.97,NW,315,0.0,1.0,87,0.00,,,0.00,meteohub,2013-10-23 10:37:00,
2013-10-23 06:38:00,36.3,32.5,29.97,WSW,248,7.0,7.0,86,0.00,,,0.00,meteohub,2013-10-23 10:38:00,
2013-10-23 06:39:00,36.5,32.7,29.97,WSW,248,0.0,1.0,86,0.00,,,0.00,meteohub,2013-10-23 10:39:00,
2013-10-23 06:40:00,36.5,32.7,29.97,North,0,0.0,1.0,86,0.00,,,0.00,meteohub,2013-10-23 10:40:00,
2013-10-23 06:42:00,36.5,32.7,29.96,SE,135,0.0,7.0,86,0.00,,,0.00,meteohub,2013-10-23 10:42:00,
2013-10-23 06:43:00,36.5,32.7,29.96,West,270,2.0,7.0,86,0.00,,,0.00,meteohub,2013-10-23 10:43:00,
2013-10-23 06:44:00,36.5,32.7,29.96,West,270,2.0,7.0,86,0.00,,,0.00,meteohub,2013-10-23 10:44:00,
2013-10-23 06:45:00,36.5,32.7,29.96,West,270,2.0,7.0,86,0.00,,,0.00,meteohub,2013-10-23 10:45:00,
2013-10-23 06:46:00,36.5,32.7,29.96,WSW,248,2.0,7.0,86,0.00,,,0.00,meteohub,2013-10-23 10:46:00,
2013-10-23 06:47:00,36.5,32.7,29.96,WSW,248,2.0,7.0,86,0.00,,,0.00,meteohub,2013-10-23 10:47:00,
2013-10-23 06:48:00,36.5,32.7,29.96,East,90,2.0,7.0,86,0.00,,,0.00,meteohub,2013-10-23 10:48:00,
2013-10-23 06:51:00,36.5,32.7,29.96,SE,135,0.0,7.0,86,0.00,,,0.00,meteohub,2013-10-23 10:51:00,
2013-10-23 06:52:00,36.5,32.7,29.96,NW,315,2.0,7.0,86,0.00,,,0.00,meteohub,2013-10-23 10:52:00,
2013-10-23 06:53:00,36.5,32.7,29.96,South,180,2.0,7.0,86,0.00,,,0.00,meteohub,2013-10-23 10:53:00,
2013-10-23 06:54:00,36.5,32.7,29.96,South,180,0.0,7.0,86,0.00,,,0.00,meteohub,2013-10-23 10:54:00,
2013-10-23 06:55:00,36.5,32.7,29.96,South,180,0.0,7.0,86,0.00,,,0.00,meteohub,2013-10-23 10:55:00,
2013-10-23 06:56:00,36.5,32.7,29.96,South,180,0.0,3.0,86,0.00,,,0.00,meteohub,2013-10-23 10:56:00,
2013-10-23 06:57:00,36.5,32.7,29.96,SE,135,1.0,3.0,86,0.00,,,0.00,meteohub,2013-10-23 10:57:00,
2013-10-23 06:58:00,36.5,32.7,29.96,SE,135,0.0,3.0,86,0.00,,,0.00,meteohub,2013-10-23 10:58:00,
2013-10-23 07:01:00,36.5,32.7,29.96,SE,135,0.0,3.0,86,0.00,,,0.00,meteohub,2013-10-23 11:01:00,
2013-10-23 07:02:00,36.5,32.7,29.95,SE,135,0.0,3.0,86,0.00,,,0.00,meteohub,2013-10-23 11:02:00,
2013-10-23 07:03:00,36.5,32.7,29.95,SE,135,0.0,3.0,86,0.00,,,0.00,meteohub,2013-10-23 11:03:00,
2013-10-23 07:05:00,36.5,32.7,29.95,SE,135,0.0,3.0,86,0.00,,,0.00,meteohub,2013-10-23 11:05:00,
2013-10-23 07:07:00,36.3,32.5,29.95,SE,135,0.0,2.0,86,0.00,,,0.00,meteohub,2013-10-23 11:07:00,
2013-10-23 07:08:00,36.3,32.5,29.95,SE,135,0.0,2.0,86,0.00,,,0.00,meteohub,2013-10-23 11:08:00,
2013-10-23 07:09:00,36.3,32.5,29.95,SE,135,0.0,2.0,86,0.00,,,0.00,meteohub,2013-10-23 11:09:00,
2013-10-23 07:10:00,36.3,32.5,29.95,SE,135,0.0,2.0,86,0.00,,,0.00,meteohub,2013-10-23 11:10:00,
2013-10-23 07:12:00,36.3,32.5,29.96,WSW,248,0.0,1.0,86,0.00,,,0.00,meteohub,2013-10-23 11:12:00,
2013-10-23 07:13:00,36.3,32.5,29.96,WSW,248,0.0,1.0,86,0.00,,,0.00,meteohub,2013-10-23 11:13:00,
2013-10-23 07:14:00,36.3,32.5,29.96,WSW,248,0.0,1.0,86,0.00,,,0.00,meteohub,2013-10-23 11:14:00,
2013-10-23 07:15:00,36.3,32.5,29.96,WSW,248,0.0,0.0,86,0.00,,,0.00,meteohub,2013-10-23 11:15:00,
2013-10-23 07:16:00,36.3,32.5,29.96,WSW,248,0.0,0.0,86,0.00,,,0.00,meteohub,2013-10-23 11:16:00,
2013-10-23 07:18:00,36.3,32.5,29.96,West,270,1.0,0.0,86,0.00,,,0.00,meteohub,2013-10-23 11:18:00,
2013-10-23 07:19:00,36.3,32.5,29.96,South,180,2.0,0.0,86,0.00,,,0.00,meteohub,2013-10-23 11:19:00,
2013-10-23 07:21:00,36.3,32.5,29.96,SE,135,0.0,1.0,86,0.00,,,0.00,meteohub,2013-10-23 11:21:00,
2013-10-23 07:22:00,36.3,32.5,29.96,SE,135,0.0,1.0,86,0.00,,,0.00,meteohub,2013-10-23 11:22:00,
2013-10-23 07:23:00,36.3,32.5,29.95,SE,135,0.0,1.0,86,0.00,,,0.00,meteohub,2013-10-23 11:23:00,
2013-10-23 07:24:00,36.3,32.5,29.95,SE,135,0.0,1.0,86,0.00,,,0.00,meteohub,2013-10-23 11:24:00,
2013-10-23 07:25:00,36.3,32.5,29.96,WSW,248,0.0,2.0,86,0.00,,,0.00,meteohub,2013-10-23 11:25:00,
2013-10-23 07:26:00,36.3,32.9,29.96,WSW,248,0.0,2.0,87,0.00,,,0.00,meteohub,2013-10-23 11:26:00,
2013-10-23 07:27:00,36.3,32.9,29.96,WSW,248,0.0,2.0,87,0.00,,,0.00,meteohub,2013-10-23 11:27:00,
2013-10-23 07:29:00,36.3,32.5,29.96,West,270,1.0,2.0,86,0.00,,,0.00,meteohub,2013-10-23 11:29:00,
2013-10-23 07:31:00,36.3,32.9,29.96,NW,315,0.0,2.0,87,0.00,,,0.00,meteohub,2013-10-23 11:31:00,
2013-10-23 07:33:00,36.3,32.9,29.96,NW,315,2.0,2.0,87,0.00,,,0.00,meteohub,2013-10-23 11:33:00,
2013-10-23 07:34:00,36.3,32.9,29.96,NW,315,2.0,2.0,87,0.00,,,0.00,meteohub,2013-10-23 11:34:00,
2013-10-23 07:36:00,36.3,32.9,29.96,NW,315,1.0,2.0,87,0.00,,,0.00,meteohub,2013-10-23 11:36:00,
2013-10-23 07:37:00,36.3,32.9,29.96,NW,315,2.0,2.0,87,0.00,,,0.00,meteohub,2013-10-23 11:37:00,
2013-10-23 07:38:00,36.3,32.9,29.96,NW,315,2.0,2.0,87,0.00,,,0.00,meteohub,2013-10-23 11:38:00,
2013-10-23 07:39:00,36.1,32.9,29.97,NW,315,1.0,2.0,88,0.00,,,0.00,meteohub,2013-10-23 11:39:00,
2013-10-23 07:41:00,36.1,32.9,29.96,NE,45,1.0,2.0,88,0.00,,,0.00,meteohub,2013-10-23 11:41:00,
2013-10-23 07:43:00,36.1,32.9,29.96,NW,315,1.0,2.0,88,0.00,,,0.00,meteohub,2013-10-23 11:43:00,
2013-10-23 07:44:00,36.1,32.9,29.96,NW,315,1.0,2.0,88,0.00,,,0.00,meteohub,2013-10-23 11:44:00,
2013-10-23 07:45:00,36.1,32.9,29.96,NW,315,1.0,2.0,88,0.00,,,0.00,meteohub,2013-10-23 11:45:00,
2013-10-23 07:47:00,36.1,32.9,29.96,NW,315,2.0,2.0,88,0.00,,,0.00,meteohub,2013-10-23 11:47:00,
2013-10-23 07:48:00,36.1,32.9,29.96,NW,315,1.0,2.0,88,0.00,,,0.00,meteohub,2013-10-23 11:48:00,
2013-10-23 07:49:00,36.0,32.7,29.96,NW,315,1.0,2.0,88,0.00,,,0.00,meteohub,2013-10-23 11:49:00,
2013-10-23 07:50:00,36.0,32.7,29.96,NW,315,1.0,2.0,88,0.00,,,0.00,meteohub,2013-10-23 11:50:00,
2013-10-23 07:52:00,36.0,33.1,29.96,WSW,248,2.0,2.0,89,0.00,,,0.00,meteohub,2013-10-23 11:52:00,
2013-10-23 07:54:00,36.0,33.1,29.96,NW,315,4.0,4.0,89,0.00,,,0.00,meteohub,2013-10-23 11:54:00,
2013-10-23 07:55:00,36.0,33.1,29.96,North,0,3.0,4.0,89,0.00,,,0.00,meteohub,2013-10-23 11:55:00,
2013-10-23 07:56:00,36.0,33.3,29.96,North,0,2.0,4.0,90,0.00,,,0.00,meteohub,2013-10-23 11:56:00,
2013-10-23 07:57:00,36.0,33.3,29.95,North,0,3.0,4.0,90,0.00,,,0.00,meteohub,2013-10-23 11:57:00,
2013-10-23 08:00:00,36.0,33.3,29.96,North,0,0.0,4.0,90,0.00,,,0.00,meteohub,2013-10-23 12:00:00,
2013-10-23 08:01:00,36.0,33.3,29.96,North,0,0.0,4.0,90,0.00,,,0.00,meteohub,2013-10-23 12:01:00,
2013-10-23 08:02:00,36.0,33.3,29.96,North,0,2.0,4.0,90,0.00,,,0.00,meteohub,2013-10-23 12:02:00,
2013-10-23 08:04:00,36.0,33.3,29.95,NW,315,0.0,4.0,90,0.00,,,0.00,meteohub,2013-10-23 12:04:00,
2013-10-23 08:06:00,36.0,33.3,29.96,NW,315,1.0,4.0,90,0.00,,,0.00,meteohub,2013-10-23 12:06:00,
2013-10-23 08:07:00,36.0,33.3,29.96,West,270,2.0,4.0,90,0.00,,,0.00,meteohub,2013-10-23 12:07:00,
2013-10-23 08:08:00,36.0,33.3,29.96,NW,315,2.0,4.0,90,0.00,,,0.00,meteohub,2013-10-23 12:08:00,
2013-10-23 08:09:00,36.0,33.3,29.96,NW,315,2.0,4.0,90,0.00,,,0.00,meteohub,2013-10-23 12:09:00,
2013-10-23 08:12:00,35.8,33.4,29.96,WSW,248,2.0,3.0,91,0.00,,,0.00,meteohub,2013-10-23 12:12:00,
2013-10-23 08:13:00,35.8,33.4,29.96,WSW,248,0.0,3.0,91,0.00,,,0.00,meteohub,2013-10-23 12:13:00,
2013-10-23 08:14:00,35.8,33.4,29.96,WSW,248,1.0,3.0,91,0.00,,,0.00,meteohub,2013-10-23 12:14:00,
2013-10-23 08:15:00,35.8,33.4,29.96,NE,45,1.0,3.0,91,0.00,,,0.00,meteohub,2013-10-23 12:15:00,
2013-10-23 08:17:00,35.8,33.4,29.96,NW,315,0.0,2.0,91,0.00,,,0.00,meteohub,2013-10-23 12:17:00,
2013-10-23 08:18:00,35.8,33.4,29.96,West,270,3.0,3.0,91,0.00,,,0.00,meteohub,2013-10-23 12:18:00,
2013-10-23 08:19:00,35.8,33.4,29.96,NW,315,1.0,2.0,91,0.00,,,0.00,meteohub,2013-10-23 12:19:00,
2013-10-23 08:20:00,35.8,33.4,29.96,NW,315,0.0,3.0,91,0.00,,,0.00,meteohub,2013-10-23 12:20:00,
2013-10-23 08:21:00,35.8,33.4,29.96,NW,315,0.0,3.0,91,0.00,,,0.00,meteohub,2013-10-23 12:21:00,
2013-10-23 08:22:00,35.8,33.4,29.96,North,0,2.0,3.0,91,0.00,,,0.00,meteohub,2013-10-23 12:22:00,
2013-10-23 08:23:00,35.8,33.4,29.96,North,0,2.0,3.0,91,0.00,,,0.00,meteohub,2013-10-23 12:23:00,
2013-10-23 08:26:00,35.8,33.6,29.95,North,0,0.0,3.0,92,0.00,,,0.00,meteohub,2013-10-23 12:26:00,
2013-10-23 08:27:00,35.8,33.6,29.96,North,0,0.0,3.0,92,0.00,,,0.00,meteohub,2013-10-23 12:27:00,
2013-10-23 08:28:00,35.8,33.6,29.95,North,0,0.0,3.0,92,0.00,,,0.00,meteohub,2013-10-23 12:28:00,
2013-10-23 08:29:00,35.8,33.6,29.95,North,0,0.0,3.0,92,0.00,,,0.00,meteohub,2013-10-23 12:29:00,
2013-10-23 08:31:00,36.0,33.8,29.95,North,0,0.0,3.0,92,0.00,,,0.00,meteohub,2013-10-23 12:31:00,
2013-10-23 08:33:00,36.0,33.8,29.95,North,0,0.0,3.0,92,0.00,,,0.00,meteohub,2013-10-23 12:33:00,
2013-10-23 08:34:00,36.0,33.8,29.96,North,0,0.0,3.0,92,0.00,,,0.00,meteohub,2013-10-23 12:34:00,
2013-10-23 08:35:00,36.0,33.8,29.96,North,0,0.0,2.0,92,0.00,,,0.00,meteohub,2013-10-23 12:35:00,
2013-10-23 08:38:00,36.1,34.0,29.95,North,0,0.0,2.0,92,0.00,,,0.00,meteohub,2013-10-23 12:38:00,
2013-10-23 08:39:00,36.1,34.0,29.96,SE,135,1.0,2.0,92,0.00,,,0.00,meteohub,2013-10-23 12:39:00,
2013-10-23 08:40:00,36.1,34.0,29.95,SE,135,1.0,2.0,92,0.00,,,0.00,meteohub,2013-10-23 12:40:00,
2013-10-23 08:42:00,36.1,34.0,29.95,SE,135,0.0,1.0,92,0.00,,,0.00,meteohub,2013-10-23 12:42:00,
2013-10-23 08:43:00,36.1,34.0,29.95,North,0,0.0,1.0,92,0.00,,,0.00,meteohub,2013-10-23 12:43:00,
2013-10-23 08:44:00,36.1,34.0,29.95,North,0,0.0,1.0,92,0.00,,,0.00,meteohub,2013-10-23 12:44:00,
2013-10-23 08:45:00,36.1,34.0,29.95,North,0,0.0,1.0,92,0.00,,,0.00,meteohub,2013-10-23 12:45:00,
2013-10-23 08:47:00,36.3,34.2,29.95,North,0,0.0,1.0,92,0.00,,,0.00,meteohub,2013-10-23 12:47:00,
2013-10-23 08:48:00,36.3,34.2,29.95,North,0,0.0,1.0,92,0.00,,,0.00,meteohub,2013-10-23 12:48:00,
2013-10-23 08:49:00,36.3,34.2,29.95,North,0,0.0,1.0,92,0.00,,,0.00,meteohub,2013-10-23 12:49:00,
2013-10-23 08:51:00,36.3,34.2,29.95,NE,45,1.0,1.0,92,0.00,,,0.00,meteohub,2013-10-23 12:51:00,
2013-10-23 08:52:00,36.3,34.2,29.95,NE,45,1.0,1.0,92,0.00,,,0.00,meteohub,2013-10-23 12:52:00,
2013-10-23 08:53:00,36.3,34.2,29.95,NE,45,1.0,1.0,92,0.00,,,0.00,meteohub,2013-10-23 12:53:00,
2013-10-23 08:54:00,36.5,34.3,29.95,South,180,1.0,1.0,92,0.00,,,0.00,meteohub,2013-10-23 12:54:00,
2013-10-23 08:55:00,36.5,34.3,29.95,South,180,1.0,1.0,92,0.00,,,0.00,meteohub,2013-10-23 12:55:00,
2013-10-23 08:56:00,36.5,34.3,29.95,South,180,1.0,1.0,92,0.00,,,0.00,meteohub,2013-10-23 12:56:00,
2013-10-23 08:57:00,36.7,34.5,29.95,South,180,0.0,1.0,92,0.00,,,0.00,meteohub,2013-10-23 12:57:00,
2013-10-23 08:59:00,36.7,34.5,29.95,South,180,0.0,1.0,92,0.00,,,0.00,meteohub,2013-10-23 12:59:00,
2013-10-23 09:01:00,36.9,34.5,29.95,WSW,248,0.0,1.0,91,0.00,,,0.00,meteohub,2013-10-23 13:01:00,
2013-10-23 09:02:00,36.9,34.5,29.95,South,180,0.0,1.0,91,0.00,,,0.00,meteohub,2013-10-23 13:02:00,
2013-10-23 09:04:00,36.9,34.5,29.95,South,180,0.0,1.0,91,0.00,,,0.00,meteohub,2013-10-23 13:04:00,
2013-10-23 09:06:00,36.9,34.5,29.96,South,180,0.0,1.0,91,0.00,,,0.00,meteohub,2013-10-23 13:06:00,
2013-10-23 09:07:00,36.9,34.5,29.96,South,180,0.0,1.0,91,0.00,,,0.00,meteohub,2013-10-23 13:07:00,
2013-10-23 09:08:00,36.9,34.5,29.96,South,180,0.0,1.0,91,0.00,,,0.00,meteohub,2013-10-23 13:08:00,
2013-10-23 09:09:00,36.9,34.2,29.96,South,180,0.0,1.0,90,0.00,,,0.00,meteohub,2013-10-23 13:09:00,
2013-10-23 09:11:00,36.9,34.2,29.96,South,180,0.0,1.0,90,0.00,,,0.00,meteohub,2013-10-23 13:11:00,
2013-10-23 09:13:00,37.0,34.3,29.96,South,180,0.0,1.0,90,0.00,,,0.00,meteohub,2013-10-23 13:13:00,
2013-10-23 09:14:00,37.0,34.3,29.96,South,180,0.0,1.0,90,0.00,,,0.00,meteohub,2013-10-23 13:14:00,
2013-10-23 09:15:00,37.0,34.3,29.96,NE,45,0.0,1.0,90,0.00,,,0.00,meteohub,2013-10-23 13:15:00,
2013-10-23 09:18:00,37.0,34.7,29.96,South,180,0.0,0.0,91,0.00,,,0.00,meteohub,2013-10-23 13:18:00,
2013-10-23 09:19:00,37.0,34.7,29.96,South,180,0.0,0.0,91,0.00,,,0.00,meteohub,2013-10-23 13:19:00,
2013-10-23 09:20:00,37.0,34.7,29.96,South,180,0.0,0.0,91,0.00,,,0.00,meteohub,2013-10-23 13:20:00,
2013-10-23 09:22:00,37.0,34.7,29.96,South,180,0.0,0.0,91,0.00,,,0.00,meteohub,2013-10-23 13:22:00,
2013-10-23 09:24:00,37.0,34.7,29.96,South,180,0.0,0.0,91,0.00,,,0.00,meteohub,2013-10-23 13:24:00,
2013-10-23 09:25:00,37.0,34.7,29.96,South,180,0.0,0.0,91,0.00,,,0.00,meteohub,2013-10-23 13:25:00,
2013-10-23 09:27:00,37.0,34.7,29.96,WSW,248,0.0,0.0,91,0.00,,,0.00,meteohub,2013-10-23 13:27:00,
2013-10-23 09:28:00,37.0,34.7,29.96,WSW,248,0.0,0.0,91,0.00,,,0.00,meteohub,2013-10-23 13:28:00,
2013-10-23 09:29:00,36.9,34.5,29.96,South,180,0.0,0.0,91,0.00,,,0.00,meteohub,2013-10-23 13:29:00,
2013-10-23 09:30:00,36.9,34.5,29.96,South,180,0.0,0.0,91,0.00,,,0.00,meteohub,2013-10-23 13:30:00,
2013-10-23 09:31:00,36.9,34.7,29.96,South,180,0.0,0.0,92,0.00,,,0.00,meteohub,2013-10-23 13:31:00,
2013-10-23 09:33:00,36.9,34.7,29.96,South,180,0.0,0.0,92,0.00,,,0.00,meteohub,2013-10-23 13:33:00,
2013-10-23 09:34:00,36.9,34.7,29.96,South,180,0.0,0.0,92,0.00,,,0.00,meteohub,2013-10-23 13:34:00,
2013-10-23 09:35:00,36.7,34.5,29.96,East,90,0.0,0.0,92,0.00,,,0.00,meteohub,2013-10-23 13:35:00,
2013-10-23 09:36:00,36.9,34.7,29.96,East,90,0.0,0.0,92,0.00,,,0.00,meteohub,2013-10-23 13:36:00,
2013-10-23 09:38:00,36.7,34.5,29.96,East,90,0.0,0.0,92,0.00,,,0.00,meteohub,2013-10-23 13:38:00,
2013-10-23 09:39:00,36.7,34.5,29.95,East,90,0.0,0.0,92,0.00,,,0.00,meteohub,2013-10-23 13:39:00,
2013-10-23 09:41:00,36.7,34.5,29.95,NE,45,0.0,0.0,92,0.00,,,0.00,meteohub,2013-10-23 13:41:00,
2013-10-23 09:42:00,36.7,34.5,29.95,NE,45,0.0,0.0,92,0.00,,,0.00,meteohub,2013-10-23 13:42:00,
2013-10-23 09:44:00,36.7,34.5,29.95,NE,45,0.0,0.0,92,0.00,,,0.00,meteohub,2013-10-23 13:44:00,
2013-10-23 09:45:00,36.7,34.5,29.96,NE,45,0.0,0.0,92,0.00,,,0.00,meteohub,2013-10-23 13:45:00,
2013-10-23 09:47:00,36.7,34.5,29.96,South,180,0.0,0.0,92,0.00,,,0.00,meteohub,2013-10-23 13:47:00,
2013-10-23 09:49:00,36.7,34.5,29.95,WSW,248,0.0,0.0,92,0.00,,,0.00,meteohub,2013-10-23 13:49:00,
2013-10-23 09:50:00,36.7,34.5,29.96,WSW,248,0.0,0.0,92,0.00,,,0.00,meteohub,2013-10-23 13:50:00,
2013-10-23 09:52:00,36.7,34.5,29.96,WSW,248,2.0,0.0,92,0.00,,,0.00,meteohub,2013-10-23 13:52:00,
2013-10-23 09:53:00,36.5,34.3,29.96,WSW,248,2.0,0.0,92,0.00,,,0.00,meteohub,2013-10-23 13:53:00,
2013-10-23 09:54:00,36.5,34.3,29.96,WSW,248,1.0,0.0,92,0.00,,,0.00,meteohub,2013-10-23 13:54:00,
2013-10-23 09:55:00,36.5,34.3,29.96,WSW,248,0.0,0.0,92,0.00,,,0.00,meteohub,2013-10-23 13:55:00,
2013-10-23 09:56:00,36.5,34.3,29.96,NW,315,0.0,2.0,92,0.00,,,0.00,meteohub,2013-10-23 13:56:00,
2013-10-23 09:58:00,36.5,34.3,29.95,West,270,2.0,2.0,92,0.00,,,0.00,meteohub,2013-10-23 13:58:00,
2013-10-23 09:59:00,36.5,34.3,29.96,West,270,1.0,2.0,92,0.00,,,0.00,meteohub,2013-10-23 13:59:00,
2013-10-23 10:00:00,36.5,34.3,29.96,West,270,1.0,2.0,92,0.00,,,0.00,meteohub,2013-10-23 14:00:00,
2013-10-23 10:01:00,36.5,34.7,29.95,WSW,248,1.0,2.0,93,0.00,,,0.00,meteohub,2013-10-23 14:01:00,
2013-10-23 10:03:00,36.5,34.7,29.96,North,0,1.0,2.0,93,0.00,,,0.00,meteohub,2013-10-23 14:03:00,
2013-10-23 10:05:00,36.7,34.9,29.95,North,0,1.0,2.0,93,0.00,,,0.00,meteohub,2013-10-23 14:05:00,
2013-10-23 10:06:00,36.7,34.9,29.95,North,0,2.0,2.0,93,0.00,,,0.00,meteohub,2013-10-23 14:06:00,
2013-10-23 10:10:00,36.5,34.7,29.96,NW,315,2.0,2.0,93,0.01,,,0.01,meteohub,2013-10-23 14:10:00,
2013-10-23 10:11:00,36.3,34.5,29.95,North,0,2.0,2.0,93,0.01,,,0.01,meteohub,2013-10-23 14:11:00,
2013-10-23 10:12:00,36.3,34.5,29.95,NW,315,2.0,2.0,93,0.01,,,0.01,meteohub,2013-10-23 14:12:00,
2013-10-23 10:15:00,36.1,34.3,29.96,NW,315,2.0,2.0,93,0.01,,,0.01,meteohub,2013-10-23 14:15:00,
2013-10-23 10:16:00,36.1,34.3,29.96,NW,315,2.0,2.0,93,0.01,,,0.01,meteohub,2013-10-23 14:16:00,
2013-10-23 10:17:00,36.0,34.2,29.96,North,0,4.0,4.0,93,0.01,,,0.01,meteohub,2013-10-23 14:17:00,
2013-10-23 10:18:00,36.0,34.2,29.96,North,0,4.0,4.0,93,0.01,,,0.01,meteohub,2013-10-23 14:18:00,
2013-10-23 10:20:00,35.8,34.0,29.96,North,0,0.0,4.0,93,0.01,,,0.01,meteohub,2013-10-23 14:20:00,
2013-10-23 10:22:00,35.8,34.0,29.96,NW,315,0.0,4.0,93,0.01,,,0.01,meteohub,2013-10-23 14:22:00,
2013-10-23 10:23:00,35.8,34.2,29.96,NE,45,1.0,4.0,94,0.01,,,0.01,meteohub,2013-10-23 14:23:00,
2013-10-23 10:26:00,35.6,34.0,29.95,NE,45,2.0,4.0,94,0.01,,,0.01,meteohub,2013-10-23 14:26:00,
2013-10-23 10:27:00,35.6,34.0,29.95,NE,45,2.0,4.0,94,0.01,,,0.01,meteohub,2013-10-23 14:27:00,
2013-10-23 10:28:00,35.6,34.0,29.95,South,180,1.0,4.0,94,0.01,,,0.01,meteohub,2013-10-23 14:28:00,
2013-10-23 10:31:00,35.6,34.3,29.96,North,0,2.0,4.0,95,0.02,,,0.02,meteohub,2013-10-23 14:31:00,
2013-10-23 10:32:00,35.4,34.2,29.95,South,180,2.0,4.0,95,0.02,,,0.02,meteohub,2013-10-23 14:32:00,
2013-10-23 10:35:00,35.2,33.6,29.95,West,270,1.0,2.0,94,0.02,,,0.02,meteohub,2013-10-23 14:35:00,
2013-10-23 10:36:00,35.2,34.0,29.96,North,0,1.0,2.0,95,0.02,,,0.02,meteohub,2013-10-23 14:36:00,
2013-10-23 10:37:00,35.2,34.0,29.95,NE,45,2.0,2.0,95,0.02,,,0.02,meteohub,2013-10-23 14:37:00,
2013-10-23 10:38:00,35.1,33.8,29.95,North,0,1.0,2.0,95,0.02,,,0.02,meteohub,2013-10-23 14:38:00,
2013-10-23 10:41:00,35.1,33.8,29.95,North,0,1.0,2.0,95,0.02,,,0.02,meteohub,2013-10-23 14:41:00,
2013-10-23 10:43:00,35.1,33.8,29.95,NW,315,0.0,2.0,95,0.02,,,0.02,meteohub,2013-10-23 14:43:00,
2013-10-23 10:45:00,35.1,33.8,29.95,NW,315,0.0,2.0,95,0.02,,,0.02,meteohub,2013-10-23 14:45:00,
2013-10-23 10:46:00,35.1,33.8,29.95,NW,315,0.0,2.0,95,0.02,,,0.02,meteohub,2013-10-23 14:46:00,
2013-10-23 10:48:00,35.1,33.8,29.95,NW,315,1.0,2.0,95,0.02,,,0.02,meteohub,2013-10-23 14:48:00,
2013-10-23 10:50:00,35.1,33.8,29.95,NW,315,0.0,2.0,95,0.04,,,0.04,meteohub,2013-10-23 14:50:00,
2013-10-23 10:51:00,35.1,33.8,29.95,NW,315,0.0,2.0,95,0.04,,,0.04,meteohub,2013-10-23 14:51:00,
2013-10-23 10:52:00,35.1,33.8,29.95,NW,315,0.0,2.0,95,0.04,,,0.04,meteohub,2013-10-23 14:52:00,
2013-10-23 10:54:00,35.1,33.8,29.95,West,270,1.0,2.0,95,0.04,,,0.04,meteohub,2013-10-23 14:54:00,
2013-10-23 10:56:00,35.1,33.8,29.95,NW,315,0.0,2.0,95,0.04,,,0.04,meteohub,2013-10-23 14:56:00,
2013-10-23 10:57:00,35.1,33.8,29.95,NW,315,0.0,2.0,95,0.04,,,0.04,meteohub,2013-10-23 14:57:00,
2013-10-23 10:59:00,34.9,33.6,29.95,NW,315,2.0,2.0,95,0.04,,,0.04,meteohub,2013-10-23 14:59:00,
2013-10-23 11:01:00,34.9,33.6,29.96,NW,315,1.0,2.0,95,0.04,,,0.04,meteohub,2013-10-23 15:01:00,
2013-10-23 11:02:00,34.9,33.6,29.95,NW,315,2.0,2.0,95,0.04,,,0.04,meteohub,2013-10-23 15:02:00,
2013-10-23 11:03:00,34.7,33.4,29.95,West,270,2.0,2.0,95,0.04,,,0.04,meteohub,2013-10-23 15:03:00,
2013-10-23 11:06:00,34.7,33.4,29.96,North,0,1.0,2.0,95,0.04,,,0.04,meteohub,2013-10-23 15:06:00,
2013-10-23 11:07:00,34.7,33.4,29.96,NW,315,1.0,2.0,95,0.04,,,0.04,meteohub,2013-10-23 15:07:00,
2013-10-23 11:08:00,34.7,33.6,29.96,NW,315,0.0,2.0,96,0.04,,,0.04,meteohub,2013-10-23 15:08:00,
2013-10-23 11:09:00,34.7,33.4,29.95,NW,315,1.0,2.0,95,0.04,,,0.04,meteohub,2013-10-23 15:09:00,
2013-10-23 11:13:00,34.7,33.6,29.96,NW,315,0.0,2.0,96,0.02,,,0.04,meteohub,2013-10-23 15:13:00,
2013-10-23 11:15:00,35.1,34.0,29.95,North,0,0.0,2.0,96,0.02,,,0.04,meteohub,2013-10-23 15:15:00,
2013-10-23 11:16:00,35.1,34.0,29.96,NW,315,2.0,2.0,96,0.04,,,0.05,meteohub,2013-10-23 15:16:00,
2013-10-23 11:18:00,35.1,34.0,29.95,West,270,1.0,2.0,96,0.04,,,0.05,meteohub,2013-10-23 15:18:00,
2013-10-23 11:19:00,35.1,34.0,29.96,West,270,1.0,2.0,96,0.04,,,0.05,meteohub,2013-10-23 15:19:00,
2013-10-23 11:20:00,35.2,34.2,29.95,NW,315,2.0,2.0,96,0.04,,,0.06,meteohub,2013-10-23 15:20:00,
2013-10-23 11:22:00,35.2,34.2,29.96,North,0,2.0,2.0,96,0.05,,,0.06,meteohub,2013-10-23 15:22:00,
2013-10-23 11:23:00,35.2,34.2,29.96,NW,315,2.0,2.0,96,0.05,,,0.06,meteohub,2013-10-23 15:23:00,
2013-10-23 11:24:00,35.2,34.2,29.95,NW,315,2.0,2.0,96,0.05,,,0.06,meteohub,2013-10-23 15:24:00,
2013-10-23 11:26:00,35.2,34.2,29.96,North,0,2.0,2.0,96,0.04,,,0.06,meteohub,2013-10-23 15:26:00,
2013-10-23 11:27:00,35.2,34.2,29.96,NW,315,3.0,3.0,96,0.04,,,0.06,meteohub,2013-10-23 15:27:00,
2013-10-23 11:28:00,35.2,34.2,29.96,North,0,2.0,2.0,96,0.04,,,0.06,meteohub,2013-10-23 15:28:00,
2013-10-23 11:29:00,35.2,34.2,29.96,NW,315,2.0,2.0,96,0.04,,,0.06,meteohub,2013-10-23 15:29:00,
2013-10-23 11:32:00,35.4,34.3,29.95,North,0,2.0,4.0,96,0.04,,,0.06,meteohub,2013-10-23 15:32:00,
2013-10-23 11:34:00,35.4,34.3,29.95,North,0,2.0,4.0,96,0.04,,,0.06,meteohub,2013-10-23 15:34:00,
2013-10-23 11:35:00,35.4,34.7,29.95,NW,315,2.0,4.0,97,0.04,,,0.07,meteohub,2013-10-23 15:35:00,
2013-10-23 11:38:00,35.4,34.7,29.95,North,0,4.0,4.0,97,0.05,,,0.07,meteohub,2013-10-23 15:38:00,
2013-10-23 11:39:00,35.6,34.9,29.95,North,0,2.0,4.0,97,0.05,,,0.07,meteohub,2013-10-23 15:39:00,
2013-10-23 11:40:00,35.6,34.9,29.95,North,0,3.0,4.0,97,0.05,,,0.07,meteohub,2013-10-23 15:40:00,
2013-10-23 11:41:00,35.6,34.9,29.95,North,0,3.0,4.0,97,0.05,,,0.07,meteohub,2013-10-23 15:41:00,
2013-10-23 11:43:00,35.4,34.7,29.95,North,0,2.0,4.0,97,0.05,,,0.07,meteohub,2013-10-23 15:43:00,
2013-10-23 11:44:00,35.4,34.7,29.95,North,0,2.0,4.0,97,0.05,,,0.07,meteohub,2013-10-23 15:44:00,
2013-10-23 11:45:00,35.4,34.7,29.96,North,0,2.0,4.0,97,0.05,,,0.07,meteohub,2013-10-23 15:45:00,
2013-10-23 11:47:00,35.4,34.7,29.95,West,270,2.0,5.0,97,0.04,,,0.07,meteohub,2013-10-23 15:47:00,
2013-10-23 11:49:00,35.4,34.7,29.95,West,270,2.0,5.0,97,0.04,,,0.07,meteohub,2013-10-23 15:49:00,
2013-10-23 11:50:00,35.6,34.9,29.95,North,0,1.0,5.0,97,0.04,,,0.07,meteohub,2013-10-23 15:50:00,
2013-10-23 11:51:00,35.6,34.9,29.95,North,0,0.0,5.0,97,0.04,,,0.07,meteohub,2013-10-23 15:51:00,
2013-10-23 11:52:00,35.6,34.9,29.95,North,0,1.0,5.0,97,0.04,,,0.07,meteohub,2013-10-23 15:52:00,
2013-10-23 11:54:00,35.8,35.1,29.95,NW,315,1.0,5.0,97,0.04,,,0.07,meteohub,2013-10-23 15:54:00,
2013-10-23 11:55:00,35.8,35.1,29.95,NW,315,2.0,5.0,97,0.04,,,0.07,meteohub,2013-10-23 15:55:00,
2013-10-23 11:56:00,35.8,35.1,29.95,NW,315,2.0,5.0,97,0.04,,,0.07,meteohub,2013-10-23 15:56:00,
2013-10-23 11:57:00,35.8,35.1,29.95,North,0,2.0,5.0,97,0.04,,,0.07,meteohub,2013-10-23 15:57:00,
2013-10-23 11:58:00,36.0,35.2,29.95,North,0,2.0,5.0,97,0.04,,,0.07,meteohub,2013-10-23 15:58:00,
2013-10-23 12:00:00,36.0,35.2,29.95,NW,315,3.0,5.0,97,0.04,,,0.07,meteohub,2013-10-23 16:00:00,
2013-10-23 12:01:00,36.0,35.2,29.95,NW,315,2.0,3.0,97,0.04,,,0.07,meteohub,2013-10-23 16:01:00,
2013-10-23 12:02:00,36.0,35.2,29.95,North,0,2.0,3.0,97,0.04,,,0.07,meteohub,2013-10-23 16:02:00,
2013-10-23 12:03:00,36.1,35.4,29.94,North,0,2.0,3.0,97,0.04,,,0.07,meteohub,2013-10-23 16:03:00,
2013-10-23 12:06:00,36.7,36.0,29.94,WSW,248,3.0,3.0,97,0.05,,,0.08,meteohub,2013-10-23 16:06:00,
2013-10-23 12:07:00,36.7,36.0,29.94,SE,135,2.0,3.0,97,0.05,,,0.08,meteohub,2013-10-23 16:07:00,
2013-10-23 12:08:00,36.9,36.1,29.95,West,270,1.0,3.0,97,0.05,,,0.08,meteohub,2013-10-23 16:08:00,
2013-10-23 12:09:00,36.9,36.1,29.95,West,270,1.0,3.0,97,0.05,,,0.08,meteohub,2013-10-23 16:09:00,
2013-10-23 12:11:00,37.0,36.3,29.94,WSW,248,2.0,4.0,97,0.04,,,0.08,meteohub,2013-10-23 16:11:00,
2013-10-23 12:13:00,37.4,36.7,29.95,NE,45,2.0,4.0,97,0.04,,,0.08,meteohub,2013-10-23 16:13:00,
2013-10-23 12:14:00,37.4,36.7,29.94,NW,315,1.0,4.0,97,0.04,,,0.08,meteohub,2013-10-23 16:14:00,
2013-10-23 12:15:00,37.6,36.5,29.95,NW,315,1.0,4.0,96,0.04,,,0.08,meteohub,2013-10-23 16:15:00,
2013-10-23 12:16:00,37.6,36.5,29.94,NW,315,2.0,4.0,96,0.02,,,0.08,meteohub,2013-10-23 16:16:00,
2013-10-23 12:17:00,37.6,36.5,29.95,West,270,3.0,4.0,96,0.02,,,0.08,meteohub,2013-10-23 16:17:00,
2013-10-23 12:20:00,37.4,36.1,29.95,NW,315,3.0,4.0,95,0.02,,,0.08,meteohub,2013-10-23 16:20:00,
2013-10-23 12:21:00,37.4,36.1,29.95,NW,315,3.0,4.0,95,0.02,,,0.08,meteohub,2013-10-23 16:21:00,
2013-10-23 12:22:00,37.4,36.1,29.95,NW,315,3.0,4.0,95,0.02,,,0.08,meteohub,2013-10-23 16:22:00,
2013-10-23 12:23:00,37.6,36.3,29.95,North,0,0.0,4.0,95,0.02,,,0.08,meteohub,2013-10-23 16:23:00,
2013-10-23 12:26:00,37.8,36.5,29.94,North,0,3.0,4.0,95,0.02,,,0.08,meteohub,2013-10-23 16:26:00,
2013-10-23 12:27:00,37.8,36.5,29.94,North,0,2.0,4.0,95,0.02,,,0.08,meteohub,2013-10-23 16:27:00,
2013-10-23 12:29:00,37.9,36.7,29.94,North,0,2.0,4.0,95,0.02,,,0.08,meteohub,2013-10-23 16:29:00,
2013-10-23 12:31:00,37.9,36.3,29.94,NE,45,2.0,4.0,94,0.01,,,0.08,meteohub,2013-10-23 16:31:00,
2013-10-23 12:32:00,37.9,36.3,29.94,NE,45,2.0,4.0,94,0.01,,,0.08,meteohub,2013-10-23 16:32:00,
2013-10-23 12:33:00,37.9,36.3,29.94,East,90,2.0,4.0,94,0.01,,,0.08,meteohub,2013-10-23 16:33:00,
2013-10-23 12:34:00,37.9,36.3,29.94,East,90,2.0,4.0,94,0.01,,,0.08,meteohub,2013-10-23 16:34:00,
2013-10-23 12:35:00,38.3,36.7,29.94,West,270,2.0,4.0,94,0.01,,,0.08,meteohub,2013-10-23 16:35:00,
2013-10-23 12:37:00,38.3,36.7,29.94,West,270,4.0,4.0,94,0.01,,,0.08,meteohub,2013-10-23 16:37:00,
2013-10-23 12:39:00,38.1,36.3,29.94,NW,315,4.0,4.0,93,0.01,,,0.08,meteohub,2013-10-23 16:39:00,
2013-10-23 12:40:00,37.9,36.1,29.94,West,270,3.0,3.0,93,0.01,,,0.08,meteohub,2013-10-23 16:40:00,
2013-10-23 12:41:00,37.9,36.1,29.94,NE,45,1.0,4.0,93,0.01,,,0.08,meteohub,2013-10-23 16:41:00,
2013-10-23 12:42:00,37.9,36.1,29.94,North,0,4.0,4.0,93,0.01,,,0.08,meteohub,2013-10-23 16:42:00,
2013-10-23 12:44:00,37.8,36.0,29.94,SE,135,3.0,4.0,93,0.01,,,0.08,meteohub,2013-10-23 16:44:00,
2013-10-23 12:45:00,37.8,36.0,29.94,North,0,6.0,6.0,93,0.01,,,0.08,meteohub,2013-10-23 16:45:00,
2013-10-23 12:46:00,37.6,35.8,29.94,NW,315,5.0,6.0,93,0.01,,,0.08,meteohub,2013-10-23 16:46:00,
2013-10-23 12:47:00,37.6,35.8,29.94,NW,315,2.0,6.0,93,0.01,,,0.08,meteohub,2013-10-23 16:47:00,
2013-10-23 12:50:00,37.4,35.6,29.94,NW,315,4.0,6.0,93,0.01,,,0.08,meteohub,2013-10-23 16:50:00,
2013-10-23 12:51:00,37.4,35.6,29.94,North,0,3.0,6.0,93,0.01,,,0.08,meteohub,2013-10-23 16:51:00,
2013-10-23 12:52:00,37.2,35.4,29.94,NW,315,2.0,6.0,93,0.01,,,0.08,meteohub,2013-10-23 16:52:00,
2013-10-23 12:53:00,37.2,35.6,29.94,NW,315,2.0,6.0,94,0.01,,,0.08,meteohub,2013-10-23 16:53:00,
2013-10-23 12:55:00,37.2,35.6,29.94,NW,315,3.0,6.0,94,0.01,,,0.08,meteohub,2013-10-23 16:55:00,
2013-10-23 12:56:00,37.2,35.6,29.94,North,0,4.0,6.0,94,0.01,,,0.08,meteohub,2013-10-23 16:56:00,
2013-10-23 12:57:00,37.0,35.4,29.94,West,270,2.0,6.0,94,0.01,,,0.08,meteohub,2013-10-23 16:57:00,
2013-10-23 12:59:00,37.0,35.8,29.94,West,270,2.0,6.0,95,0.01,,,0.08,meteohub,2013-10-23 16:59:00,
2013-10-23 13:01:00,37.0,35.8,29.94,North,0,3.0,6.0,95,0.00,,,0.08,meteohub,2013-10-23 17:01:00,
2013-10-23 13:02:00,37.0,35.8,29.94,NW,315,2.0,6.0,95,0.00,,,0.08,meteohub,2013-10-23 17:02:00,
2013-10-23 13:04:00,37.0,35.8,29.94,NE,45,2.0,6.0,95,0.00,,,0.08,meteohub,2013-10-23 17:04:00,
2013-10-23 13:06:00,37.2,36.0,29.94,NW,315,4.0,4.0,95,0.00,,,0.08,meteohub,2013-10-23 17:06:00,
2013-10-23 13:07:00,37.0,35.8,29.94,NW,315,4.0,4.0,95,0.00,,,0.08,meteohub,2013-10-23 17:07:00,
2013-10-23 13:08:00,37.0,35.8,29.93,West,270,3.0,4.0,95,0.00,,,0.08,meteohub,2013-10-23 17:08:00,
2013-10-23 13:09:00,37.2,36.0,29.94,North,0,0.0,4.0,95,0.00,,,0.08,meteohub,2013-10-23 17:09:00,
2013-10-23 13:11:00,37.2,36.0,29.93,NW,315,2.0,4.0,95,0.00,,,0.08,meteohub,2013-10-23 17:11:00,
2013-10-23 13:12:00,37.2,36.0,29.93,North,0,3.0,4.0,95,0.00,,,0.08,meteohub,2013-10-23 17:12:00,
2013-10-23 13:13:00,37.2,36.0,29.93,NW,315,2.0,4.0,95,0.00,,,0.08,meteohub,2013-10-23 17:13:00,
2013-10-23 13:16:00,37.2,36.0,29.94,WSW,248,2.0,4.0,95,0.00,,,0.08,meteohub,2013-10-23 17:16:00,
2013-10-23 13:18:00,37.2,36.0,29.93,West,270,2.0,4.0,95,0.00,,,0.08,meteohub,2013-10-23 17:18:00,
2013-10-23 13:19:00,37.2,36.0,29.94,West,270,4.0,4.0,95,0.00,,,0.08,meteohub,2013-10-23 17:19:00,
2013-10-23 13:22:00,37.0,35.8,29.93,West,270,2.0,4.0,95,0.00,,,0.08,meteohub,2013-10-23 17:22:00,
2013-10-23 13:23:00,37.0,35.8,29.94,NW,315,2.0,4.0,95,0.00,,,0.08,meteohub,2013-10-23 17:23:00,
2013-10-23 13:27:00,36.9,35.6,29.93,NW,315,4.0,4.0,95,0.00,,,0.08,meteohub,2013-10-23 17:27:00,
2013-10-23 13:28:00,36.9,35.6,29.93,NW,315,3.0,4.0,95,0.00,,,0.08,meteohub,2013-10-23 17:28:00,
2013-10-23 13:31:00,36.9,35.6,29.93,NW,315,0.0,4.0,95,0.00,,,0.08,meteohub,2013-10-23 17:31:00,
2013-10-23 13:33:00,36.9,35.6,29.93,North,0,1.0,4.0,95,0.00,,,0.08,meteohub,2013-10-23 17:33:00,
2013-10-23 13:34:00,36.9,35.6,29.93,North,0,1.0,4.0,95,0.00,,,0.08,meteohub,2013-10-23 17:34:00,
2013-10-23 13:36:00,37.2,36.1,29.93,NE,45,2.0,4.0,96,0.00,,,0.08,meteohub,2013-10-23 17:36:00,
2013-10-23 13:37:00,37.2,36.1,29.93,NE,45,1.0,4.0,96,0.00,,,0.08,meteohub,2013-10-23 17:37:00,
2013-10-23 13:39:00,37.4,36.3,29.93,WSW,248,2.0,4.0,96,0.00,,,0.08,meteohub,2013-10-23 17:39:00,
2013-10-23 13:40:00,37.4,36.3,29.93,WSW,248,2.0,4.0,96,0.00,,,0.08,meteohub,2013-10-23 17:40:00,
2013-10-23 13:41:00,37.4,36.3,29.93,North,0,2.0,4.0,96,0.00,,,0.08,meteohub,2013-10-23 17:41:00,
2013-10-23 13:42:00,37.6,36.5,29.93,West,270,1.0,4.0,96,0.00,,,0.08,meteohub,2013-10-23 17:42:00,
2013-10-23 13:43:00,37.6,36.5,29.93,WSW,248,0.0,4.0,96,0.00,,,0.08,meteohub,2013-10-23 17:43:00,
2013-10-23 13:44:00,37.6,36.5,29.93,NW,315,1.0,4.0,96,0.00,,,0.08,meteohub,2013-10-23 17:44:00,
2013-10-23 13:45:00,37.4,36.3,29.93,NW,315,3.0,3.0,96,0.00,,,0.08,meteohub,2013-10-23 17:45:00,
2013-10-23 13:46:00,37.4,36.3,29.93,NW,315,2.0,2.0,96,0.00,,,0.08,meteohub,2013-10-23 17:46:00,
2013-10-23 13:48:00,37.2,36.1,29.93,North,0,2.0,2.0,96,0.00,,,0.08,meteohub,2013-10-23 17:48:00,
2013-10-23 13:49:00,37.2,36.1,29.93,North,0,2.0,2.0,96,0.00,,,0.08,meteohub,2013-10-23 17:49:00,
2013-10-23 13:53:00,37.2,36.1,29.93,North,0,2.0,3.0,96,0.01,,,0.09,meteohub,2013-10-23 17:53:00,
2013-10-23 13:54:00,37.2,36.1,29.93,NE,45,2.0,3.0,96,0.01,,,0.09,meteohub,2013-10-23 17:54:00,
2013-10-23 13:55:00,37.2,36.1,29.93,West,270,2.0,3.0,96,0.01,,,0.09,meteohub,2013-10-23 17:55:00,
2013-10-23 13:56:00,37.2,36.1,29.93,East,90,2.0,3.0,96,0.01,,,0.09,meteohub,2013-10-23 17:56:00,
2013-10-23 13:59:00,37.0,36.0,29.93,NW,315,3.0,3.0,96,0.01,,,0.09,meteohub,2013-10-23 17:59:00,
2013-10-23 14:00:00,37.0,36.0,29.93,North,0,3.0,3.0,96,0.01,,,0.09,meteohub,2013-10-23 18:00:00,
2013-10-23 14:01:00,37.2,36.1,29.93,West,270,2.0,3.0,96,0.01,,,0.09,meteohub,2013-10-23 18:01:00,
2013-10-23 14:03:00,37.2,36.1,29.93,North,0,3.0,3.0,96,0.01,,,0.09,meteohub,2013-10-23 18:03:00,
2013-10-23 14:04:00,37.2,36.1,29.92,East,90,1.0,3.0,96,0.01,,,0.09,meteohub,2013-10-23 18:04:00,
2013-10-23 14:05:00,37.2,36.5,29.92,NW,315,2.0,3.0,97,0.01,,,0.09,meteohub,2013-10-23 18:05:00,
2013-10-23 14:06:00,37.2,36.5,29.92,North,0,2.0,3.0,97,0.01,,,0.09,meteohub,2013-10-23 18:06:00,
2013-10-23 14:07:00,37.4,36.3,29.93,North,0,2.0,3.0,96,0.01,,,0.09,meteohub,2013-10-23 18:07:00,
2013-10-23 14:08:00,37.4,36.7,29.93,North,0,2.0,3.0,97,0.01,,,0.09,meteohub,2013-10-23 18:08:00,
2013-10-23 14:10:00,37.6,36.9,29.93,East,90,2.0,3.0,97,0.01,,,0.09,meteohub,2013-10-23 18:10:00,
2013-10-23 14:11:00,37.6,36.9,29.92,West,270,2.0,3.0,97,0.01,,,0.09,meteohub,2013-10-23 18:11:00,
2013-10-23 14:12:00,37.8,37.0,29.93,WSW,248,2.0,3.0,97,0.01,,,0.09,meteohub,2013-10-23 18:12:00,
2013-10-23 14:14:00,37.8,37.0,29.92,North,0,2.0,3.0,97,0.01,,,0.09,meteohub,2013-10-23 18:14:00,
2013-10-23 14:15:00,37.8,36.7,29.93,NW,315,1.0,3.0,96,0.01,,,0.09,meteohub,2013-10-23 18:15:00,
2013-10-23 14:16:00,37.8,37.0,29.92,West,270,2.0,3.0,97,0.01,,,0.09,meteohub,2013-10-23 18:16:00,
2013-10-23 14:17:00,37.8,37.0,29.92,West,270,2.0,3.0,97,0.01,,,0.09,meteohub,2013-10-23 18:17:00,
2013-10-23 14:18:00,37.6,36.5,29.93,North,0,2.0,3.0,96,0.01,,,0.09,meteohub,2013-10-23 18:18:00,
2013-10-23 14:21:00,37.6,36.5,29.92,North,0,3.0,4.0,96,0.01,,,0.09,meteohub,2013-10-23 18:21:00,
2013-10-23 14:22:00,37.6,36.5,29.92,West,270,3.0,4.0,96,0.01,,,0.09,meteohub,2013-10-23 18:22:00,
2013-10-23 14:23:00,37.6,36.5,29.92,NW,315,2.0,4.0,96,0.01,,,0.09,meteohub,2013-10-23 18:23:00,
2013-10-23 14:24:00,37.6,36.9,29.93,West,270,2.0,4.0,97,0.01,,,0.09,meteohub,2013-10-23 18:24:00,
2013-10-23 14:27:00,37.6,36.5,29.92,NW,315,4.0,4.0,96,0.01,,,0.09,meteohub,2013-10-23 18:27:00,
2013-10-23 14:28:00,37.6,36.5,29.92,NE,45,3.0,4.0,96,0.01,,,0.09,meteohub,2013-10-23 18:28:00,
2013-10-23 14:30:00,37.4,36.3,29.93,NW,315,4.0,4.0,96,0.01,,,0.09,meteohub,2013-10-23 18:30:00,
2013-10-23 14:31:00,37.2,36.1,29.93,North,0,4.0,4.0,96,0.01,,,0.09,meteohub,2013-10-23 18:31:00,
2013-10-23 14:33:00,37.2,36.1,29.93,NW,315,4.0,4.0,96,0.01,,,0.09,meteohub,2013-10-23 18:33:00,
2013-10-23 14:34:00,37.2,36.1,29.93,North,0,3.0,4.0,96,0.01,,,0.09,meteohub,2013-10-23 18:34:00,
2013-10-23 14:35:00,37.2,36.1,29.93,NW,315,2.0,4.0,96,0.01,,,0.09,meteohub,2013-10-23 18:35:00,
2013-10-23 14:37:00,37.2,36.1,29.92,NW,315,3.0,4.0,96,0.01,,,0.09,meteohub,2013-10-23 18:37:00,
2013-10-23 14:38:00,37.2,36.1,29.93,NW,315,2.0,4.0,96,0.01,,,0.09,meteohub,2013-10-23 18:38:00,
2013-10-23 14:39:00,37.2,36.5,29.93,NW,315,3.0,4.0,97,0.01,,,0.09,meteohub,2013-10-23 18:39:00,
2013-10-23 14:40:00,37.2,36.5,29.93,West,270,4.0,4.0,97,0.01,,,0.09,meteohub,2013-10-23 18:40:00,
2013-10-23 14:43:00,37.0,36.3,29.93,NW,315,4.0,5.0,97,0.01,,,0.09,meteohub,2013-10-23 18:43:00,
2013-10-23 14:44:00,37.0,36.3,29.93,NW,315,4.0,5.0,97,0.01,,,0.09,meteohub,2013-10-23 18:44:00,
2013-10-23 14:45:00,37.0,36.3,29.93,NW,315,1.0,5.0,97,0.00,,,0.09,meteohub,2013-10-23 18:45:00,
2013-10-23 14:47:00,37.2,36.5,29.93,WSW,248,2.0,5.0,97,0.00,,,0.09,meteohub,2013-10-23 18:47:00,
2013-10-23 14:49:00,37.2,36.5,29.93,WSW,248,2.0,5.0,97,0.00,,,0.09,meteohub,2013-10-23 18:49:00,
2013-10-23 14:50:00,37.2,36.5,29.93,NW,315,3.0,5.0,97,0.00,,,0.09,meteohub,2013-10-23 18:50:00,
2013-10-23 14:52:00,37.2,36.5,29.93,North,0,3.0,5.0,97,0.00,,,0.09,meteohub,2013-10-23 18:52:00,
2013-10-23 14:53:00,37.2,36.5,29.93,West,270,4.0,5.0,97,0.00,,,0.09,meteohub,2013-10-23 18:53:00,
2013-10-23 14:54:00,37.2,36.5,29.93,NW,315,4.0,5.0,97,0.00,,,0.09,meteohub,2013-10-23 18:54:00,
2013-10-23 14:55:00,37.2,36.5,29.93,West,270,2.0,5.0,97,0.00,,,0.09,meteohub,2013-10-23 18:55:00,
2013-10-23 14:56:00,37.4,36.9,29.93,WSW,248,2.0,5.0,98,0.00,,,0.09,meteohub,2013-10-23 18:56:00,
2013-10-23 14:57:00,37.4,36.9,29.93,WSW,248,2.0,5.0,98,0.00,,,0.09,meteohub,2013-10-23 18:57:00,
2013-10-23 14:58:00,37.6,37.0,29.93,NE,45,1.0,5.0,98,0.00,,,0.09,meteohub,2013-10-23 18:58:00,
2013-10-23 15:01:00,37.8,37.2,29.93,NW,315,4.0,4.0,98,0.00,,,0.09,meteohub,2013-10-23 19:01:00,
2013-10-23 15:02:00,37.8,37.0,29.93,NW,315,2.0,4.0,97,0.00,,,0.09,meteohub,2013-10-23 19:02:00,
2013-10-23 15:04:00,37.8,37.0,29.94,NW,315,2.0,4.0,97,0.00,,,0.09,meteohub,2013-10-23 19:04:00,
2013-10-23 15:06:00,37.6,36.9,29.93,South,180,5.0,5.0,97,0.00,,,0.09,meteohub,2013-10-23 19:06:00,
2013-10-23 15:07:00,37.6,36.9,29.93,West,270,2.0,4.0,97,0.00,,,0.09,meteohub,2013-10-23 19:07:00,
2013-10-23 15:09:00,37.4,36.7,29.94,West,270,4.0,4.0,97,0.00,,,0.09,meteohub,2013-10-23 19:09:00,
2013-10-23 15:10:00,37.4,36.7,29.94,West,270,4.0,4.0,97,0.00,,,0.09,meteohub,2013-10-23 19:10:00,
2013-10-23 15:11:00,37.4,36.7,29.93,North,0,2.0,6.0,97,0.00,,,0.09,meteohub,2013-10-23 19:11:00,
2013-10-23 15:12:00,37.4,36.7,29.93,NE,45,1.0,6.0,97,0.00,,,0.09,meteohub,2013-10-23 19:12:00,
2013-10-23 15:13:00,37.4,36.7,29.93,North,0,4.0,6.0,97,0.00,,,0.09,meteohub,2013-10-23 19:13:00,
2013-10-23 15:14:00,37.4,36.7,29.94,South,180,3.0,6.0,97,0.00,,,0.09,meteohub,2013-10-23 19:14:00,
2013-10-23 15:16:00,37.4,36.7,29.93,North,0,2.0,6.0,97,0.00,,,0.09,meteohub,2013-10-23 19:16:00,
2013-10-23 15:17:00,37.4,36.7,29.93,North,0,2.0,6.0,97,0.00,,,0.09,meteohub,2013-10-23 19:17:00,
2013-10-23 15:19:00,37.2,36.5,29.93,NW,315,2.0,6.0,97,0.00,,,0.09,meteohub,2013-10-23 19:19:00,
2013-10-23 15:21:00,37.2,36.5,29.94,NW,315,1.0,6.0,97,0.00,,,0.09,meteohub,2013-10-23 19:21:00,
2013-10-23 15:22:00,37.2,36.5,29.94,North,0,3.0,6.0,97,0.00,,,0.09,meteohub,2013-10-23 19:22:00,
2013-10-23 15:23:00,37.0,36.3,29.94,North,0,4.0,6.0,97,0.00,,,0.09,meteohub,2013-10-23 19:23:00,
2013-10-23 15:24:00,37.0,36.3,29.93,NW,315,2.0,6.0,97,0.00,,,0.09,meteohub,2013-10-23 19:24:00,
2013-10-23 15:26:00,37.0,36.3,29.93,NE,45,4.0,4.0,97,0.00,,,0.09,meteohub,2013-10-23 19:26:00,
2013-10-23 15:27:00,37.0,36.3,29.93,NE,45,4.0,4.0,97,0.00,,,0.09,meteohub,2013-10-23 19:27:00,
2013-10-23 15:28:00,37.0,36.5,29.94,North,0,2.0,4.0,98,0.00,,,0.09,meteohub,2013-10-23 19:28:00,
2013-10-23 15:29:00,37.2,36.7,29.94,North,0,1.0,4.0,98,0.00,,,0.09,meteohub,2013-10-23 19:29:00,
2013-10-23 15:30:00,37.2,36.7,29.94,North,0,1.0,4.0,98,0.00,,,0.09,meteohub,2013-10-23 19:30:00,
2013-10-23 15:32:00,37.4,36.9,29.94,West,270,2.0,5.0,98,0.00,,,0.09,meteohub,2013-10-23 19:32:00,
2013-10-23 15:34:00,37.4,36.9,29.94,North,0,3.0,5.0,98,0.00,,,0.09,meteohub,2013-10-23 19:34:00,
2013-10-23 15:35:00,37.6,36.9,29.94,West,270,3.0,5.0,97,0.00,,,0.09,meteohub,2013-10-23 19:35:00,
2013-10-23 15:37:00,37.6,37.0,29.94,West,270,2.0,5.0,98,0.00,,,0.09,meteohub,2013-10-23 19:37:00,
2013-10-23 15:39:00,37.8,37.2,29.94,WSW,248,2.0,5.0,98,0.00,,,0.09,meteohub,2013-10-23 19:39:00,
2013-10-23 15:40:00,37.8,37.2,29.94,North,0,2.0,5.0,98,0.00,,,0.09,meteohub,2013-10-23 19:40:00,
2013-10-23 15:41:00,37.9,37.4,29.94,West,270,2.0,5.0,98,0.00,,,0.09,meteohub,2013-10-23 19:41:00,
2013-10-23 15:43:00,37.9,37.2,29.94,NW,315,3.0,5.0,97,0.00,,,0.09,meteohub,2013-10-23 19:43:00,
2013-10-23 15:44:00,37.9,37.2,29.94,West,270,3.0,5.0,97,0.00,,,0.09,meteohub,2013-10-23 19:44:00,
2013-10-23 15:46:00,37.9,37.2,29.94,North,0,2.0,4.0,97,0.00,,,0.09,meteohub,2013-10-23 19:46:00,
2013-10-23 15:47:00,37.9,37.2,29.94,NW,315,3.0,4.0,97,0.00,,,0.09,meteohub,2013-10-23 19:47:00,
2013-10-23 15:48:00,37.8,37.0,29.94,NW,315,4.0,4.0,97,0.00,,,0.09,meteohub,2013-10-23 19:48:00,
2013-10-23 15:49:00,37.8,37.0,29.94,South,180,6.0,6.0,97,0.00,,,0.09,meteohub,2013-10-23 19:49:00,
2013-10-23 15:52:00,37.6,36.9,29.94,West,270,2.0,6.0,97,0.00,,,0.09,meteohub,2013-10-23 19:52:00,
2013-10-23 15:53:00,37.6,36.9,29.94,East,90,2.0,6.0,97,0.00,,,0.09,meteohub,2013-10-23 19:53:00,
2013-10-23 15:54:00,37.6,36.9,29.94,SE,135,2.0,6.0,97,0.00,,,0.09,meteohub,2013-10-23 19:54:00,
2013-10-23 15:55:00,37.6,36.9,29.95,NW,315,3.0,6.0,97,0.00,,,0.09,meteohub,2013-10-23 19:55:00,
2013-10-23 15:57:00,37.6,36.9,29.95,North,0,1.0,6.0,97,0.00,,,0.09,meteohub,2013-10-23 19:57:00,
2013-10-23 15:59:00,37.6,36.9,29.95,North,0,3.0,6.0,97,0.00,,,0.09,meteohub,2013-10-23 19:59:00,
2013-10-23 16:01:00,37.6,36.9,29.94,NW,315,2.0,6.0,97,0.00,,,0.09,meteohub,2013-10-23 20:01:00,
2013-10-23 16:02:00,37.6,36.9,29.94,NW,315,3.0,6.0,97,0.00,,,0.09,meteohub,2013-10-23 20:02:00,
2013-10-23 16:04:00,37.6,36.9,29.94,NW,315,3.0,6.0,97,0.00,,,0.09,meteohub,2013-10-23 20:04:00,
2013-10-23 16:05:00,37.6,36.9,29.94,NW,315,3.0,6.0,97,0.00,,,0.11,meteohub,2013-10-23 20:05:00,
2013-10-23 16:06:00,37.6,36.9,29.95,NW,315,3.0,4.0,97,0.01,,,0.11,meteohub,2013-10-23 20:06:00,
2013-10-23 16:07:00,37.6,36.9,29.94,NW,315,3.0,4.0,97,0.01,,,0.11,meteohub,2013-10-23 20:07:00,
2013-10-23 16:09:00,37.6,36.9,29.95,NW,315,3.0,4.0,97,0.01,,,0.11,meteohub,2013-10-23 20:09:00,
2013-10-23 16:10:00,37.2,36.5,29.95,West,270,3.0,5.0,97,0.02,,,0.11,meteohub,2013-10-23 20:10:00,
2013-10-23 16:11:00,37.0,36.3,29.95,NW,315,4.0,5.0,97,0.02,,,0.11,meteohub,2013-10-23 20:11:00,
2013-10-23 16:12:00,37.0,36.3,29.95,North,0,3.0,5.0,97,0.02,,,0.11,meteohub,2013-10-23 20:12:00,
2013-10-23 16:13:00,37.0,36.3,29.94,WSW,248,2.0,5.0,97,0.02,,,0.11,meteohub,2013-10-23 20:13:00,
2013-10-23 16:14:00,37.0,36.3,29.95,NW,315,4.0,5.0,97,0.02,,,0.11,meteohub,2013-10-23 20:14:00,
2013-10-23 16:15:00,36.9,36.1,29.95,SE,135,2.0,5.0,97,0.02,,,0.12,meteohub,2013-10-23 20:15:00,
2013-10-23 16:16:00,36.9,36.1,29.95,WSW,248,4.0,5.0,97,0.02,,,0.12,meteohub,2013-10-23 20:16:00,
2013-10-23 16:17:00,36.9,36.1,29.95,NW,315,3.0,5.0,97,0.02,,,0.12,meteohub,2013-10-23 20:17:00,
2013-10-23 16:18:00,36.9,36.3,29.94,WSW,248,4.0,5.0,98,0.02,,,0.12,meteohub,2013-10-23 20:18:00,
2013-10-23 16:19:00,36.9,36.3,29.95,North,0,2.0,5.0,98,0.02,,,0.12,meteohub,2013-10-23 20:19:00,
2013-10-23 16:20:00,36.7,36.1,29.95,West,270,4.0,5.0,98,0.02,,,0.12,meteohub,2013-10-23 20:20:00,
2013-10-23 16:22:00,36.7,36.1,29.94,West,270,2.0,5.0,98,0.02,,,0.12,meteohub,2013-10-23 20:22:00,
2013-10-23 16:23:00,36.5,36.0,29.95,WSW,248,1.0,5.0,98,0.02,,,0.12,meteohub,2013-10-23 20:23:00,
2013-10-23 16:24:00,36.7,36.1,29.95,North,0,1.0,5.0,98,0.02,,,0.12,meteohub,2013-10-23 20:24:00,
2013-10-23 16:25:00,36.7,36.1,29.95,WSW,248,2.0,5.0,98,0.02,,,0.12,meteohub,2013-10-23 20:25:00,
2013-10-23 16:27:00,36.7,36.1,29.95,WSW,248,2.0,4.0,98,0.02,,,0.12,meteohub,2013-10-23 20:27:00,
2013-10-23 16:29:00,36.9,36.3,29.96,WSW,248,2.0,4.0,98,0.02,,,0.12,meteohub,2013-10-23 20:29:00,
2013-10-23 16:30:00,36.9,36.3,29.96,WSW,248,2.0,4.0,98,0.02,,,0.12,meteohub,2013-10-23 20:30:00,
2013-10-23 16:31:00,36.9,36.3,29.95,West,270,2.0,4.0,98,0.02,,,0.12,meteohub,2013-10-23 20:31:00,
2013-10-23 16:32:00,36.9,36.3,29.96,West,270,1.0,4.0,98,0.02,,,0.12,meteohub,2013-10-23 20:32:00,
2013-10-23 16:34:00,37.0,36.5,29.96,WSW,248,2.0,4.0,98,0.02,,,0.12,meteohub,2013-10-23 20:34:00,
2013-10-23 16:35:00,37.0,36.5,29.96,WSW,248,2.0,4.0,98,0.02,,,0.12,meteohub,2013-10-23 20:35:00,
2013-10-23 16:36:00,37.0,36.5,29.96,North,0,3.0,4.0,98,0.02,,,0.12,meteohub,2013-10-23 20:36:00,
2013-10-23 16:37:00,37.0,36.5,29.96,NW,315,3.0,4.0,98,0.02,,,0.12,meteohub,2013-10-23 20:37:00,
2013-10-23 16:40:00,37.0,36.5,29.96,NW,315,2.0,4.0,98,0.02,,,0.12,meteohub,2013-10-23 20:40:00,
2013-10-23 16:41:00,37.0,36.5,29.96,NW,315,2.0,6.0,98,0.02,,,0.12,meteohub,2013-10-23 20:41:00,
2013-10-23 16:42:00,37.0,36.5,29.96,NW,315,2.0,6.0,98,0.02,,,0.12,meteohub,2013-10-23 20:42:00,
2013-10-23 16:43:00,37.0,36.5,29.96,NNW,338,4.0,6.0,98,0.02,,,0.12,meteohub,2013-10-23 20:43:00,
2013-10-23 16:45:00,37.0,36.5,29.96,NW,315,4.0,6.0,98,0.02,,,0.12,meteohub,2013-10-23 20:45:00,
2013-10-23 16:47:00,37.0,36.9,29.96,West,270,2.0,6.0,99,0.02,,,0.12,meteohub,2013-10-23 20:47:00,
2013-10-23 16:48:00,37.0,36.9,29.96,South,180,2.0,6.0,99,0.02,,,0.12,meteohub,2013-10-23 20:48:00,
2013-10-23 16:49:00,37.0,36.9,29.96,South,180,2.0,6.0,99,0.02,,,0.12,meteohub,2013-10-23 20:49:00,
2013-10-23 16:50:00,37.0,36.9,29.96,WSW,248,4.0,6.0,99,0.04,,,0.13,meteohub,2013-10-23 20:50:00,
2013-10-23 16:52:00,37.0,36.9,29.96,NW,315,4.0,6.0,99,0.04,,,0.13,meteohub,2013-10-23 20:52:00,
2013-10-23 16:53:00,37.0,36.9,29.96,NW,315,4.0,6.0,99,0.04,,,0.13,meteohub,2013-10-23 20:53:00,
2013-10-23 16:54:00,36.9,36.7,29.96,NW,315,2.0,6.0,99,0.04,,,0.13,meteohub,2013-10-23 20:54:00,
2013-10-23 16:55:00,36.9,36.7,29.97,NW,315,2.0,5.0,99,0.04,,,0.13,meteohub,2013-10-23 20:55:00,
2013-10-23 16:57:00,36.9,36.7,29.96,North,0,4.0,5.0,99,0.04,,,0.13,meteohub,2013-10-23 20:57:00,
2013-10-23 16:58:00,36.9,36.7,29.97,WSW,248,3.0,5.0,99,0.04,,,0.13,meteohub,2013-10-23 20:58:00,
2013-10-23 16:59:00,36.9,36.7,29.97,North,0,4.0,5.0,99,0.04,,,0.13,meteohub,2013-10-23 20:59:00,
2013-10-23 17:00:00,36.9,36.7,29.97,West,270,7.0,7.0,99,0.04,,,0.13,meteohub,2013-10-23 21:00:00,
2013-10-23 17:04:00,36.9,36.7,29.97,NW,315,4.0,8.0,99,0.04,,,0.13,meteohub,2013-10-23 21:04:00,
2013-10-23 17:05:00,36.9,36.7,29.97,NW,315,4.0,8.0,99,0.04,,,0.13,meteohub,2013-10-23 21:05:00,
2013-10-23 17:07:00,36.9,36.7,29.96,South,180,3.0,8.0,99,0.02,,,0.13,meteohub,2013-10-23 21:07:00,
2013-10-23 17:09:00,36.9,36.7,29.97,NNE,23,2.0,8.0,99,0.02,,,0.13,meteohub,2013-10-23 21:09:00,
2013-10-23 17:10:00,36.9,36.7,29.97,West,270,3.0,8.0,99,0.02,,,0.13,meteohub,2013-10-23 21:10:00,
2013-10-23 17:12:00,36.9,36.7,29.97,East,90,2.0,8.0,99,0.01,,,0.13,meteohub,2013-10-23 21:12:00,
2013-10-23 17:15:00,36.9,36.7,29.97,West,270,2.0,8.0,99,0.02,,,0.14,meteohub,2013-10-23 21:15:00,
2013-10-23 17:16:00,36.9,36.7,29.97,North,0,4.0,8.0,99,0.02,,,0.14,meteohub,2013-10-23 21:16:00,
2013-10-23 17:17:00,36.9,36.7,29.97,NW,315,3.0,8.0,99,0.02,,,0.14,meteohub,2013-10-23 21:17:00,
2013-10-23 17:18:00,36.9,36.7,29.97,NE,45,2.0,8.0,99,0.02,,,0.14,meteohub,2013-10-23 21:18:00,
2013-10-23 17:19:00,36.9,36.7,29.97,NE,45,2.0,8.0,99,0.02,,,0.14,meteohub,2013-10-23 21:19:00,
2013-10-23 17:21:00,36.9,36.7,29.97,NW,315,2.0,5.0,99,0.02,,,0.14,meteohub,2013-10-23 21:21:00,
2013-10-23 17:23:00,36.9,36.7,29.97,SE,135,6.0,6.0,99,0.02,,,0.14,meteohub,2013-10-23 21:23:00,
2013-10-23 17:24:00,36.9,36.7,29.97,North,0,2.0,5.0,99,0.02,,,0.14,meteohub,2013-10-23 21:24:00,
2013-10-23 17:25:00,36.9,36.7,29.97,WSW,248,8.0,8.0,99,0.02,,,0.14,meteohub,2013-10-23 21:25:00,
2013-10-23 17:28:00,37.0,36.9,29.97,WSW,248,3.0,8.0,99,0.02,,,0.14,meteohub,2013-10-23 21:28:00,
2013-10-23 17:29:00,37.0,36.9,29.97,WSW,248,3.0,8.0,99,0.02,,,0.14,meteohub,2013-10-23 21:29:00,
2013-10-23 17:30:00,37.0,36.9,29.98,NE,45,2.0,8.0,99,0.02,,,0.14,meteohub,2013-10-23 21:30:00,
2013-10-23 17:32:00,37.0,36.9,29.98,South,180,1.0,8.0,99,0.02,,,0.14,meteohub,2013-10-23 21:32:00,
2013-10-23 17:34:00,37.0,36.9,29.98,North,0,2.0,8.0,99,0.02,,,0.14,meteohub,2013-10-23 21:34:00,
2013-10-23 17:35:00,37.2,37.0,29.97,WSW,248,2.0,8.0,99,0.02,,,0.14,meteohub,2013-10-23 21:35:00,
2013-10-23 17:38:00,37.2,37.0,29.98,WSW,248,4.0,8.0,99,0.02,,,0.14,meteohub,2013-10-23 21:38:00,
2013-10-23 17:39:00,37.2,37.0,29.98,North,0,3.0,8.0,99,0.02,,,0.14,meteohub,2013-10-23 21:39:00,
2013-10-23 17:40:00,37.2,37.0,29.98,North,0,3.0,8.0,99,0.02,,,0.14,meteohub,2013-10-23 21:40:00,
2013-10-23 17:42:00,37.2,37.0,29.98,West,270,4.0,7.0,99,0.02,,,0.14,meteohub,2013-10-23 21:42:00,
2013-10-23 17:43:00,37.2,37.0,29.98,North,0,3.0,7.0,99,0.02,,,0.14,meteohub,2013-10-23 21:43:00,
2013-10-23 17:45:00,37.2,37.0,29.98,NW,315,3.0,7.0,99,0.02,,,0.14,meteohub,2013-10-23 21:45:00,
2013-10-23 17:47:00,37.2,37.0,29.98,NW,315,2.0,7.0,99,0.01,,,0.14,meteohub,2013-10-23 21:47:00,
2013-10-23 17:48:00,37.2,37.0,29.98,West,270,4.0,7.0,99,0.01,,,0.14,meteohub,2013-10-23 21:48:00,
2013-10-23 17:50:00,37.2,37.0,29.98,North,0,3.0,7.0,99,0.01,,,0.14,meteohub,2013-10-23 21:50:00,
2013-10-23 17:52:00,37.2,37.0,29.98,NW,315,5.0,7.0,99,0.01,,,0.14,meteohub,2013-10-23 21:52:00,
2013-10-23 17:54:00,37.2,37.0,29.98,WSW,248,4.0,7.0,99,0.01,,,0.14,meteohub,2013-10-23 21:54:00,
2013-10-23 17:55:00,37.2,37.0,29.98,NW,315,3.0,7.0,99,0.01,,,0.14,meteohub,2013-10-23 21:55:00,
2013-10-23 17:57:00,37.2,37.0,29.98,NW,315,3.0,8.0,99,0.01,,,0.14,meteohub,2013-10-23 21:57:00,
2013-10-23 17:59:00,37.2,37.0,29.98,WSW,248,4.0,8.0,99,0.01,,,0.14,meteohub,2013-10-23 21:59:00,
2013-10-23 18:00:00,37.2,37.0,29.99,West,270,2.0,8.0,99,0.01,,,0.14,meteohub,2013-10-23 22:00:00,
2013-10-23 18:01:00,37.2,37.0,29.98,West,270,1.0,8.0,99,0.01,,,0.14,meteohub,2013-10-23 22:01:00,
2013-10-23 18:02:00,37.2,37.0,29.99,West,270,2.0,8.0,99,0.01,,,0.14,meteohub,2013-10-23 22:02:00,
2013-10-23 18:03:00,37.2,37.0,29.99,West,270,2.0,8.0,99,0.01,,,0.14,meteohub,2013-10-23 22:03:00,
2013-10-23 18:05:00,37.2,37.0,29.99,NW,315,3.0,8.0,99,0.01,,,0.14,meteohub,2013-10-23 22:05:00,
2013-10-23 18:06:00,37.2,37.0,29.99,West,270,4.0,8.0,99,0.01,,,0.14,meteohub,2013-10-23 22:06:00,
2013-10-23 18:09:00,37.2,37.0,29.99,WSW,248,2.0,8.0,99,0.01,,,0.14,meteohub,2013-10-23 22:09:00,
2013-10-23 18:10:00,37.2,37.0,29.99,WSW,248,5.0,8.0,99,0.01,,,0.14,meteohub,2013-10-23 22:10:00,
2013-10-23 18:11:00,37.2,37.0,29.99,South,180,3.0,8.0,99,0.01,,,0.14,meteohub,2013-10-23 22:11:00,
2013-10-23 18:12:00,37.2,37.0,29.99,WSW,248,3.0,8.0,99,0.01,,,0.14,meteohub,2013-10-23 22:12:00,
2013-10-23 18:13:00,37.2,37.0,29.99,WSW,248,2.0,8.0,99,0.01,,,0.14,meteohub,2013-10-23 22:13:00,
2013-10-23 18:14:00,37.2,37.0,29.99,NW,315,3.0,8.0,99,0.01,,,0.14,meteohub,2013-10-23 22:14:00,
2013-10-23 18:15:00,37.2,37.0,29.99,WSW,248,2.0,8.0,99,0.01,,,0.14,meteohub,2013-10-23 22:15:00,
2013-10-23 18:17:00,37.4,37.2,29.99,NW,315,6.0,8.0,99,0.00,,,0.14,meteohub,2013-10-23 22:17:00,
2013-10-23 18:18:00,37.2,37.0,29.99,NW,315,3.0,8.0,99,0.00,,,0.14,meteohub,2013-10-23 22:18:00,
2013-10-23 18:19:00,37.2,37.0,29.99,WSW,248,2.0,8.0,99,0.00,,,0.14,meteohub,2013-10-23 22:19:00,
2013-10-23 18:22:00,37.2,37.0,29.99,WSW,248,2.0,8.0,99,0.00,,,0.14,meteohub,2013-10-23 22:22:00,
2013-10-23 18:23:00,37.2,37.0,29.99,SE,135,2.0,8.0,99,0.00,,,0.14,meteohub,2013-10-23 22:23:00,
2013-10-23 18:25:00,37.2,37.0,30.00,NW,315,5.0,8.0,99,0.00,,,0.14,meteohub,2013-10-23 22:25:00,
2013-10-23 18:27:00,37.2,37.0,30.00,NW,315,2.0,6.0,99,0.00,,,0.14,meteohub,2013-10-23 22:27:00,
2013-10-23 18:28:00,37.2,37.0,29.99,West,270,5.0,6.0,99,0.00,,,0.14,meteohub,2013-10-23 22:28:00,
2013-10-23 18:29:00,37.2,37.0,30.00,WSW,248,5.0,6.0,99,0.00,,,0.14,meteohub,2013-10-23 22:29:00,
2013-10-23 18:30:00,37.0,36.9,30.00,West,270,4.0,6.0,99,0.00,,,0.14,meteohub,2013-10-23 22:30:00,
2013-10-23 18:31:00,37.0,36.9,30.00,West,270,2.0,6.0,99,0.00,,,0.14,meteohub,2013-10-23 22:31:00,
2013-10-23 18:33:00,37.0,36.9,29.99,South,180,3.0,6.0,99,0.00,,,0.14,meteohub,2013-10-23 22:33:00,
2013-10-23 18:35:00,37.0,36.9,29.99,West,270,3.0,5.0,99,0.00,,,0.14,meteohub,2013-10-23 22:35:00,
2013-10-23 18:36:00,37.0,36.9,29.99,West,270,3.0,5.0,99,0.00,,,0.14,meteohub,2013-10-23 22:36:00,
2013-10-23 18:38:00,37.0,36.9,30.00,West,270,4.0,5.0,99,0.00,,,0.14,meteohub,2013-10-23 22:38:00,
2013-10-23 18:41:00,37.0,36.9,30.01,NW,315,6.0,6.0,99,0.00,,,0.14,meteohub,2013-10-23 22:41:00,
2013-10-23 18:42:00,37.0,36.9,30.01,NE,45,10.0,10.0,99,0.00,,,0.14,meteohub,2013-10-23 22:42:00,
2013-10-23 18:43:00,37.0,36.9,30.01,NW,315,5.0,6.0,99,0.00,,,0.14,meteohub,2013-10-23 22:43:00,
2013-10-23 18:46:00,36.0,35.8,30.01,NW,315,11.0,11.0,99,0.00,,,0.14,meteohub,2013-10-23 22:46:00,
2013-10-23 18:47:00,35.6,35.4,30.01,NW,315,8.0,10.0,99,0.00,,,0.14,meteohub,2013-10-23 22:47:00,
2013-10-23 18:48:00,34.9,34.3,30.01,North,0,6.0,10.0,98,0.00,,,0.14,meteohub,2013-10-23 22:48:00,
2013-10-23 18:50:00,34.9,34.3,30.01,North,0,6.0,10.0,98,0.00,,,0.14,meteohub,2013-10-23 22:50:00,
2013-10-23 18:52:00,34.0,33.4,30.01,North,0,2.0,13.0,98,0.00,,,0.14,meteohub,2013-10-23 22:52:00,
2013-10-23 18:53:00,34.0,33.4,30.01,North,0,2.0,13.0,98,0.00,,,0.14,meteohub,2013-10-23 22:53:00,
2013-10-23 18:54:00,34.0,33.8,30.01,North,0,4.0,13.0,99,0.00,,,0.14,meteohub,2013-10-23 22:54:00,
2013-10-23 18:55:00,33.8,33.6,30.01,North,0,6.0,13.0,99,0.00,,,0.14,meteohub,2013-10-23 22:55:00,
2013-10-23 18:56:00,33.6,33.4,30.01,North,0,2.0,13.0,99,0.00,,,0.14,meteohub,2013-10-23 22:56:00,
2013-10-23 18:57:00,33.6,33.4,30.01,NW,315,2.0,13.0,99,0.00,,,0.14,meteohub,2013-10-23 22:57:00,
2013-10-23 18:58:00,33.6,33.4,30.01,East,90,5.0,13.0,99,0.00,,,0.14,meteohub,2013-10-23 22:58:00,
2013-10-23 19:00:00,33.6,33.4,30.01,NW,315,2.0,13.0,99,0.00,,,0.14,meteohub,2013-10-23 23:00:00,
2013-10-23 19:03:00,33.4,33.3,30.01,NW,315,7.0,13.0,99,0.00,,,0.14,meteohub,2013-10-23 23:03:00,
2013-10-23 19:04:00,33.4,33.3,30.01,NW,315,7.0,13.0,99,0.00,,,0.14,meteohub,2013-10-23 23:04:00,
2013-10-23 19:05:00,33.4,33.3,30.01,NW,315,4.0,8.0,99,0.00,,,0.14,meteohub,2013-10-23 23:05:00,
2013-10-23 19:06:00,33.4,33.3,30.01,NW,315,4.0,8.0,99,0.00,,,0.14,meteohub,2013-10-23 23:06:00,
2013-10-23 19:07:00,33.4,33.3,30.01,WSW,248,2.0,8.0,99,0.00,,,0.14,meteohub,2013-10-23 23:07:00,
2013-10-23 19:09:00,33.4,33.3,30.01,West,270,2.0,8.0,99,0.00,,,0.14,meteohub,2013-10-23 23:09:00,
2013-10-23 19:10:00,33.4,33.3,30.02,North,0,5.0,8.0,99,0.00,,,0.14,meteohub,2013-10-23 23:10:00,
2013-10-23 19:11:00,33.4,33.3,30.02,North,0,5.0,7.0,99,0.00,,,0.14,meteohub,2013-10-23 23:11:00,
2013-10-23 19:12:00,33.4,33.3,30.02,North,0,2.0,7.0,99,0.00,,,0.14,meteohub,2013-10-23 23:12:00,
2013-10-23 19:13:00,33.4,33.3,30.02,NW,315,5.0,7.0,99,0.00,,,0.14,meteohub,2013-10-23 23:13:00,
2013-10-23 19:15:00,33.4,33.3,30.02,NW,315,1.0,7.0,99,0.00,,,0.14,meteohub,2013-10-23 23:15:00,
2013-10-23 19:16:00,33.4,33.3,30.02,NW,315,2.0,7.0,99,0.00,,,0.14,meteohub,2013-10-23 23:16:00,
2013-10-23 19:17:00,33.4,33.3,30.02,NW,315,3.0,7.0,99,0.00,,,0.14,meteohub,2013-10-23 23:17:00,
2013-10-23 19:18:00,33.4,33.3,30.02,NW,315,2.0,7.0,99,0.00,,,0.14,meteohub,2013-10-23 23:18:00,
2013-10-23 19:19:00,33.4,33.3,30.03,West,270,2.0,7.0,99,0.00,,,0.14,meteohub,2013-10-23 23:19:00,
2013-10-23 19:21:00,33.4,33.3,30.03,NW,315,2.0,5.0,99,0.00,,,0.14,meteohub,2013-10-23 23:21:00,
2013-10-23 19:22:00,33.4,33.3,30.02,NW,315,2.0,5.0,99,0.00,,,0.14,meteohub,2013-10-23 23:22:00,
2013-10-23 19:23:00,33.4,33.3,30.02,NW,315,1.0,5.0,99,0.00,,,0.14,meteohub,2013-10-23 23:23:00,
2013-10-23 19:25:00,33.4,33.3,30.03,West,270,2.0,5.0,99,0.00,,,0.14,meteohub,2013-10-23 23:25:00,
2013-10-23 19:27:00,33.4,33.3,30.02,West,270,1.0,5.0,99,0.00,,,0.14,meteohub,2013-10-23 23:27:00,
2013-10-23 19:28:00,33.4,33.3,30.02,West,270,1.0,5.0,99,0.00,,,0.14,meteohub,2013-10-23 23:28:00,
2013-10-23 19:30:00,33.4,33.3,30.02,NW,315,2.0,3.0,99,0.00,,,0.14,meteohub,2013-10-23 23:30:00,
2013-10-23 19:31:00,33.3,33.1,30.02,WSW,248,3.0,3.0,99,0.00,,,0.14,meteohub,2013-10-23 23:31:00,
2013-10-23 19:32:00,33.3,33.1,30.02,NW,315,1.0,3.0,99,0.00,,,0.14,meteohub,2013-10-23 23:32:00,
2013-10-23 19:33:00,33.3,33.1,30.02,North,0,3.0,3.0,99,0.00,,,0.14,meteohub,2013-10-23 23:33:00,
2013-10-23 19:34:00,33.3,33.1,30.02,North,0,3.0,3.0,99,0.00,,,0.14,meteohub,2013-10-23 23:34:00,
2013-10-23 19:35:00,33.3,33.1,30.02,West,270,4.0,4.0,99,0.00,,,0.14,meteohub,2013-10-23 23:35:00,
2013-10-23 19:36:00,33.3,33.1,30.02,West,270,4.0,4.0,99,0.00,,,0.14,meteohub,2013-10-23 23:36:00,
2013-10-23 19:37:00,33.3,33.1,30.03,West,270,1.0,3.0,99,0.00,,,0.14,meteohub,2013-10-23 23:37:00,
2013-10-23 19:39:00,33.3,33.1,30.03,WSW,248,1.0,3.0,99,0.00,,,0.14,meteohub,2013-10-23 23:39:00,
2013-10-23 19:40:00,33.3,33.1,30.03,NW,315,1.0,4.0,99,0.00,,,0.14,meteohub,2013-10-23 23:40:00,
2013-10-23 19:42:00,33.3,33.1,30.03,West,270,1.0,4.0,99,0.00,,,0.14,meteohub,2013-10-23 23:42:00,
2013-10-23 19:44:00,33.3,33.1,30.03,NW,315,2.0,4.0,99,0.00,,,0.14,meteohub,2013-10-23 23:44:00,
2013-10-23 19:45:00,33.3,33.1,30.03,NW,315,2.0,4.0,99,0.00,,,0.14,meteohub,2013-10-23 23:45:00,
2013-10-23 19:47:00,33.3,33.1,30.04,West,270,1.0,4.0,99,0.00,,,0.14,meteohub,2013-10-23 23:47:00,
2013-10-23 19:48:00,33.3,33.1,30.04,West,270,1.0,4.0,99,0.00,,,0.14,meteohub,2013-10-23 23:48:00,
2013-10-23 19:49:00,33.4,33.3,30.04,West,270,0.0,4.0,99,0.00,,,0.14,meteohub,2013-10-23 23:49:00,
2013-10-23 19:50:00,33.4,33.3,30.03,NW,315,1.0,4.0,99,0.00,,,0.14,meteohub,2013-10-23 23:50:00,
2013-10-23 19:51:00,33.4,33.3,30.03,NW,315,3.0,4.0,99,0.00,,,0.14,meteohub,2013-10-23 23:51:00,
2013-10-23 19:53:00,33.4,33.3,30.04,North,0,2.0,4.0,99,0.00,,,0.14,meteohub,2013-10-23 23:53:00,
2013-10-23 19:54:00,33.4,33.3,30.04,West,270,4.0,4.0,99,0.00,,,0.14,meteohub,2013-10-23 23:54:00,
2013-10-23 19:55:00,33.4,33.3,30.04,West,270,2.0,4.0,99,0.00,,,0.14,meteohub,2013-10-23 23:55:00,
2013-10-23 19:57:00,33.4,33.3,30.04,West,270,2.0,4.0,99,0.00,,,0.14,meteohub,2013-10-23 23:57:00,
2013-10-23 19:59:00,33.4,33.3,30.04,North,0,1.0,4.0,99,0.00,,,0.14,meteohub,2013-10-23 23:59:00,
2013-10-23 20:00:00,33.4,33.3,30.04,West,270,1.0,4.0,99,0.00,,,0.14,meteohub,2013-10-24 00:00:00,
2013-10-23 20:01:00,33.4,33.3,30.04,West,270,2.0,4.0,99,0.00,,,0.14,meteohub,2013-10-24 00:01:00,
2013-10-23 20:02:00,33.6,33.4,30.04,North,0,2.0,4.0,99,0.00,,,0.14,meteohub,2013-10-24 00:02:00,
2013-10-23 20:04:00,33.6,33.4,30.04,NW,315,2.0,4.0,99,0.00,,,0.14,meteohub,2013-10-24 00:04:00,
2013-10-23 20:05:00,33.6,33.4,30.04,NW,315,2.0,4.0,99,0.00,,,0.14,meteohub,2013-10-24 00:05:00,
2013-10-23 20:06:00,33.6,33.4,30.04,NW,315,4.0,4.0,99,0.00,,,0.14,meteohub,2013-10-24 00:06:00,
2013-10-23 20:08:00,33.8,33.6,30.04,North,0,3.0,4.0,99,0.00,,,0.14,meteohub,2013-10-24 00:08:00,
2013-10-23 20:09:00,33.8,33.6,30.04,NW,315,4.0,4.0,99,0.00,,,0.14,meteohub,2013-10-24 00:09:00,
2013-10-23 20:10:00,33.8,33.6,30.04,NW,315,4.0,4.0,99,0.00,,,0.14,meteohub,2013-10-24 00:10:00,
2013-10-23 20:11:00,33.8,33.6,30.04,North,0,2.0,4.0,99,0.00,,,0.14,meteohub,2013-10-24 00:11:00,
2013-10-23 20:12:00,33.8,33.6,30.04,North,0,1.0,4.0,99,0.00,,,0.14,meteohub,2013-10-24 00:12:00,
2013-10-23 20:14:00,33.8,33.6,30.04,NW,315,1.0,4.0,99,0.00,,,0.14,meteohub,2013-10-24 00:14:00,
2013-10-23 20:15:00,33.8,33.6,30.04,SE,135,1.0,4.0,99,0.00,,,0.14,meteohub,2013-10-24 00:15:00,
2013-10-23 20:16:00,33.8,33.6,30.04,South,180,1.0,4.0,99,0.00,,,0.14,meteohub,2013-10-24 00:16:00,
2013-10-23 20:17:00,33.8,33.6,30.04,NW,315,5.0,5.0,99,0.00,,,0.14,meteohub,2013-10-24 00:17:00,
2013-10-23 20:20:00,34.0,33.8,30.04,NE,45,2.0,4.0,99,0.00,,,0.14,meteohub,2013-10-24 00:20:00,
2013-10-23 20:21:00,34.0,33.8,30.04,WSW,248,1.0,5.0,99,0.00,,,0.14,meteohub,2013-10-24 00:21:00,
2013-10-23 20:22:00,34.0,33.8,30.04,WSW,248,1.0,5.0,99,0.00,,,0.14,meteohub,2013-10-24 00:22:00,
2013-10-23 20:26:00,34.2,34.0,30.05,SW,225,3.0,7.0,99,0.00,,,0.14,meteohub,2013-10-24 00:26:00,
2013-10-23 20:27:00,34.2,34.0,30.05,North,0,2.0,7.0,99,0.00,,,0.14,meteohub,2013-10-24 00:27:00,
2013-10-23 20:28:00,34.2,34.0,30.05,West,270,4.0,7.0,99,0.00,,,0.14,meteohub,2013-10-24 00:28:00,
2013-10-23 20:29:00,34.2,34.0,30.05,West,270,2.0,7.0,99,0.00,,,0.14,meteohub,2013-10-24 00:29:00,
2013-10-23 20:32:00,34.3,34.2,30.05,WSW,248,2.0,7.0,99,0.00,,,0.14,meteohub,2013-10-24 00:32:00,
2013-10-23 20:34:00,34.3,34.2,30.05,WSW,248,2.0,7.0,99,0.00,,,0.14,meteohub,2013-10-24 00:34:00,
2013-10-23 20:35:00,34.3,34.2,30.04,WSW,248,2.0,7.0,99,0.00,,,0.14,meteohub,2013-10-24 00:35:00,
2013-10-23 20:37:00,34.5,34.3,30.05,NW,315,2.0,7.0,99,0.00,,,0.14,meteohub,2013-10-24 00:37:00,
2013-10-23 20:38:00,34.5,34.3,30.05,WSW,248,2.0,7.0,99,0.00,,,0.14,meteohub,2013-10-24 00:38:00,
2013-10-23 20:39:00,34.5,34.3,30.05,NW,315,4.0,7.0,99,0.00,,,0.14,meteohub,2013-10-24 00:39:00,
2013-10-23 20:40:00,34.5,34.3,30.05,NW,315,4.0,7.0,99,0.00,,,0.14,meteohub,2013-10-24 00:40:00,
2013-10-23 20:41:00,34.5,34.3,30.05,WSW,248,5.0,6.0,99,0.00,,,0.14,meteohub,2013-10-24 00:41:00,
2013-10-23 20:43:00,34.7,34.5,30.05,WSW,248,4.0,6.0,99,0.00,,,0.14,meteohub,2013-10-24 00:43:00,
2013-10-23 20:45:00,34.7,34.5,30.05,West,270,4.0,6.0,99,0.00,,,0.15,meteohub,2013-10-24 00:45:00,
2013-10-23 20:46:00,34.7,34.5,30.05,North,0,3.0,6.0,99,0.01,,,0.15,meteohub,2013-10-24 00:46:00,
2013-10-23 20:47:00,34.7,34.5,30.05,South,180,2.0,6.0,99,0.01,,,0.15,meteohub,2013-10-24 00:47:00,
2013-10-23 20:48:00,34.7,34.5,30.05,West,270,6.0,6.0,99,0.01,,,0.15,meteohub,2013-10-24 00:48:00,
2013-10-23 20:49:00,34.7,34.5,30.05,West,270,6.0,6.0,99,0.01,,,0.15,meteohub,2013-10-24 00:49:00,
2013-10-23 20:50:00,34.9,34.7,30.05,East,90,2.0,6.0,99,0.01,,,0.15,meteohub,2013-10-24 00:50:00,
2013-10-23 20:51:00,34.9,34.7,30.05,East,90,2.0,6.0,99,0.01,,,0.15,meteohub,2013-10-24 00:51:00,
2013-10-23 20:53:00,34.9,34.7,30.05,WSW,248,4.0,6.0,99,0.01,,,0.15,meteohub,2013-10-24 00:53:00,
2013-10-23 20:54:00,34.9,34.7,30.06,NW,315,3.0,6.0,99,0.01,,,0.15,meteohub,2013-10-24 00:54:00,
2013-10-23 20:56:00,34.9,34.7,30.05,WSW,248,8.0,8.0,99,0.01,,,0.15,meteohub,2013-10-24 00:56:00,
2013-10-23 20:57:00,34.9,34.7,30.06,West,270,6.0,7.0,99,0.01,,,0.15,meteohub,2013-10-24 00:57:00,
2013-10-23 20:58:00,34.9,34.7,30.05,NW,315,6.0,7.0,99,0.01,,,0.15,meteohub,2013-10-24 00:58:00,
2013-10-23 20:59:00,34.9,34.7,30.06,NW,315,4.0,7.0,99,0.01,,,0.15,meteohub,2013-10-24 00:59:00,
2013-10-23 21:00:00,34.9,34.7,30.06,West,270,6.0,8.0,99,0.01,,,0.15,meteohub,2013-10-24 01:00:00,
2013-10-23 21:02:00,34.9,34.7,30.06,WSW,248,4.0,8.0,99,0.01,,,0.15,meteohub,2013-10-24 01:02:00,
2013-10-23 21:03:00,34.9,34.7,30.05,NE,45,4.0,8.0,99,0.01,,,0.15,meteohub,2013-10-24 01:03:00,
2013-10-23 21:04:00,35.1,34.9,30.06,SE,135,2.0,8.0,99,0.01,,,0.15,meteohub,2013-10-24 01:04:00,
2013-10-23 21:06:00,35.1,34.9,30.05,SE,135,6.0,8.0,99,0.01,,,0.15,meteohub,2013-10-24 01:06:00,
2013-10-23 21:08:00,35.1,34.9,30.06,NW,315,4.0,8.0,99,0.01,,,0.15,meteohub,2013-10-24 01:08:00,
2013-10-23 21:09:00,35.1,34.9,30.06,WSW,248,4.0,8.0,99,0.01,,,0.15,meteohub,2013-10-24 01:09:00,
2013-10-23 21:10:00,35.1,34.9,30.06,South,180,6.0,8.0,99,0.01,,,0.15,meteohub,2013-10-24 01:10:00,
2013-10-23 21:13:00,35.1,34.9,30.06,West,270,2.0,8.0,99,0.01,,,0.15,meteohub,2013-10-24 01:13:00,
2013-10-23 21:14:00,35.1,34.9,30.06,West,270,4.0,8.0,99,0.01,,,0.15,meteohub,2013-10-24 01:14:00,
2013-10-23 21:15:00,35.1,34.9,30.06,NW,315,2.0,8.0,99,0.01,,,0.15,meteohub,2013-10-24 01:15:00,
2013-10-23 21:18:00,35.1,34.9,30.06,WSW,248,2.0,7.0,99,0.01,,,0.15,meteohub,2013-10-24 01:18:00,
2013-10-23 21:19:00,35.1,34.9,30.06,North,0,2.0,7.0,99,0.01,,,0.15,meteohub,2013-10-24 01:19:00,
2013-10-23 21:20:00,35.1,34.9,30.06,South,180,2.0,7.0,99,0.01,,,0.15,meteohub,2013-10-24 01:20:00,
2013-10-23 21:22:00,35.1,34.9,30.06,NW,315,2.0,7.0,99,0.01,,,0.15,meteohub,2013-10-24 01:22:00,
2013-10-23 21:23:00,35.2,35.1,30.06,NW,315,2.0,7.0,99,0.01,,,0.15,meteohub,2013-10-24 01:23:00,
2013-10-23 21:25:00,35.2,35.1,30.06,WSW,248,4.0,7.0,99,0.02,,,0.17,meteohub,2013-10-24 01:25:00,
2013-10-23 21:26:00,35.2,35.1,30.06,West,270,5.0,7.0,99,0.02,,,0.17,meteohub,2013-10-24 01:26:00,
2013-10-23 21:27:00,35.2,35.1,30.06,South,180,4.0,7.0,99,0.02,,,0.17,meteohub,2013-10-24 01:27:00,
2013-10-23 21:28:00,35.2,35.1,30.06,North,0,3.0,7.0,99,0.02,,,0.17,meteohub,2013-10-24 01:28:00,
2013-10-23 21:29:00,35.2,35.1,30.06,North,0,3.0,7.0,99,0.02,,,0.17,meteohub,2013-10-24 01:29:00,
2013-10-23 21:32:00,35.2,35.1,30.06,NW,315,2.0,7.0,99,0.02,,,0.17,meteohub,2013-10-24 01:32:00,
2013-10-23 21:34:00,35.2,35.1,30.06,NW,315,4.0,7.0,99,0.02,,,0.17,meteohub,2013-10-24 01:34:00,
2013-10-23 21:35:00,35.2,35.1,30.06,WSW,248,3.0,7.0,99,0.02,,,0.17,meteohub,2013-10-24 01:35:00,
2013-10-23 21:37:00,35.2,35.1,30.06,NW,315,10.0,10.0,99,0.02,,,0.17,meteohub,2013-10-24 01:37:00,
2013-10-23 21:39:00,35.2,35.1,30.06,South,180,5.0,6.0,99,0.02,,,0.17,meteohub,2013-10-24 01:39:00,
2013-10-23 21:40:00,35.2,35.1,30.06,WNW,293,7.0,7.0,99,0.02,,,0.17,meteohub,2013-10-24 01:40:00,
2013-10-23 21:42:00,35.2,35.1,30.06,North,0,6.0,10.0,99,0.02,,,0.17,meteohub,2013-10-24 01:42:00,
2013-10-23 21:45:00,35.2,35.1,30.06,NW,315,4.0,10.0,99,0.02,,,0.17,meteohub,2013-10-24 01:45:00,
2013-10-23 21:46:00,35.2,35.1,30.07,WSW,248,4.0,10.0,99,0.01,,,0.17,meteohub,2013-10-24 01:46:00,
2013-10-23 21:47:00,35.2,35.1,30.06,WSW,248,4.0,10.0,99,0.01,,,0.17,meteohub,2013-10-24 01:47:00,
2013-10-23 21:48:00,35.2,35.1,30.07,West,270,4.0,10.0,99,0.01,,,0.17,meteohub,2013-10-24 01:48:00,
2013-10-23 21:51:00,35.4,35.2,30.07,West,270,2.0,10.0,99,0.01,,,0.17,meteohub,2013-10-24 01:51:00,
2013-10-23 21:52:00,35.4,35.2,30.06,West,270,9.0,10.0,99,0.01,,,0.17,meteohub,2013-10-24 01:52:00,
2013-10-23 21:53:00,35.4,35.2,30.06,WSW,248,7.0,10.0,99,0.01,,,0.17,meteohub,2013-10-24 01:53:00,
2013-10-23 21:57:00,35.4,35.2,30.07,West,270,4.0,9.0,99,0.01,,,0.17,meteohub,2013-10-24 01:57:00,
2013-10-23 21:58:00,35.4,35.2,30.07,West,270,2.0,9.0,99,0.01,,,0.17,meteohub,2013-10-24 01:58:00,
2013-10-23 21:59:00,35.4,35.2,30.07,NW,315,5.0,9.0,99,0.01,,,0.17,meteohub,2013-10-24 01:59:00,
2013-10-23 22:02:00,35.4,35.2,30.07,North,0,3.0,9.0,99,0.01,,,0.17,meteohub,2013-10-24 02:02:00,
2013-10-23 22:03:00,35.4,35.2,30.06,West,270,6.0,9.0,99,0.01,,,0.17,meteohub,2013-10-24 02:03:00,
2013-10-23 22:04:00,35.4,35.2,30.07,West,270,5.0,9.0,99,0.01,,,0.17,meteohub,2013-10-24 02:04:00,
2013-10-23 22:06:00,35.4,35.2,30.07,West,270,5.0,10.0,99,0.01,,,0.17,meteohub,2013-10-24 02:06:00,
2013-10-23 22:07:00,35.4,35.2,30.07,West,270,5.0,10.0,99,0.01,,,0.17,meteohub,2013-10-24 02:07:00,
2013-10-23 22:08:00,35.4,35.2,30.07,West,270,5.0,10.0,99,0.01,,,0.17,meteohub,2013-10-24 02:08:00,
2013-10-23 22:09:00,35.4,35.2,30.06,West,270,7.0,10.0,99,0.01,,,0.17,meteohub,2013-10-24 02:09:00,
2013-10-23 22:10:00,35.4,35.2,30.07,South,180,4.0,10.0,99,0.01,,,0.17,meteohub,2013-10-24 02:10:00,
2013-10-23 22:12:00,35.4,35.2,30.07,WSW,248,4.0,10.0,99,0.01,,,0.17,meteohub,2013-10-24 02:12:00,
2013-10-23 22:13:00,35.4,35.2,30.07,NW,315,4.0,10.0,99,0.01,,,0.17,meteohub,2013-10-24 02:13:00,
2013-10-23 22:14:00,35.4,35.2,30.07,North,0,3.0,10.0,99,0.01,,,0.17,meteohub,2013-10-24 02:14:00,
2013-10-23 22:15:00,35.4,35.2,30.07,NW,315,2.0,10.0,99,0.01,,,0.17,meteohub,2013-10-24 02:15:00,
2013-10-23 22:18:00,35.4,35.2,30.07,NW,315,5.0,10.0,99,0.01,,,0.17,meteohub,2013-10-24 02:18:00,
2013-10-23 22:19:00,35.4,35.2,30.07,WSW,248,7.0,10.0,99,0.01,,,0.17,meteohub,2013-10-24 02:19:00,
2013-10-23 22:20:00,35.4,35.2,30.07,SE,135,8.0,10.0,99,0.01,,,0.17,meteohub,2013-10-24 02:20:00,
2013-10-23 22:23:00,35.4,35.2,30.07,WSW,248,3.0,7.0,99,0.02,,,0.18,meteohub,2013-10-24 02:23:00,
2013-10-23 22:24:00,35.4,35.2,30.07,WSW,248,3.0,7.0,99,0.02,,,0.18,meteohub,2013-10-24 02:24:00,
2013-10-23 22:25:00,35.4,35.2,30.07,WSW,248,3.0,7.0,99,0.02,,,0.18,meteohub,2013-10-24 02:25:00,
2013-10-23 22:27:00,35.4,35.2,30.07,West,270,3.0,8.0,99,0.01,,,0.18,meteohub,2013-10-24 02:27:00,
2013-10-23 22:28:00,35.4,35.2,30.07,NW,315,2.0,8.0,99,0.01,,,0.18,meteohub,2013-10-24 02:28:00,
2013-10-23 22:29:00,35.4,35.2,30.08,West,270,4.0,8.0,99,0.01,,,0.18,meteohub,2013-10-24 02:29:00,
2013-10-23 22:30:00,35.4,35.2,30.07,WSW,248,2.0,8.0,99,0.01,,,0.18,meteohub,2013-10-24 02:30:00,
2013-10-23 22:32:00,35.4,35.2,30.08,NW,315,2.0,8.0,99,0.01,,,0.18,meteohub,2013-10-24 02:32:00,
2013-10-23 22:33:00,35.4,35.2,30.08,WSW,248,3.0,8.0,99,0.01,,,0.18,meteohub,2013-10-24 02:33:00,
2013-10-23 22:34:00,35.4,35.2,30.08,South,180,1.0,8.0,99,0.01,,,0.18,meteohub,2013-10-24 02:34:00,
2013-10-23 22:35:00,35.4,35.2,30.08,East,90,2.0,10.0,99,0.01,,,0.18,meteohub,2013-10-24 02:35:00,
2013-10-23 22:37:00,35.4,35.2,30.08,West,270,8.0,10.0,99,0.01,,,0.18,meteohub,2013-10-24 02:37:00,
2013-10-23 22:38:00,35.4,35.2,30.08,East,90,4.0,10.0,99,0.01,,,0.18,meteohub,2013-10-24 02:38:00,
2013-10-23 22:40:00,35.4,35.2,30.08,East,90,4.0,10.0,99,0.01,,,0.18,meteohub,2013-10-24 02:40:00,
2013-10-23 22:41:00,35.4,35.2,30.08,WSW,248,3.0,10.0,99,0.01,,,0.18,meteohub,2013-10-24 02:41:00,
2013-10-23 22:44:00,35.2,35.1,30.08,NW,315,4.0,10.0,99,0.01,,,0.18,meteohub,2013-10-24 02:44:00,
2013-10-23 22:45:00,35.2,35.1,30.08,NW,315,3.0,10.0,99,0.01,,,0.18,meteohub,2013-10-24 02:45:00,
2013-10-23 22:46:00,35.2,35.1,30.08,North,0,3.0,10.0,99,0.01,,,0.18,meteohub,2013-10-24 02:46:00,
2013-10-23 22:47:00,35.2,35.1,30.08,NW,315,3.0,10.0,99,0.01,,,0.18,meteohub,2013-10-24 02:47:00,
2013-10-23 22:51:00,35.2,35.1,30.08,WSW,248,2.0,8.0,99,0.01,,,0.18,meteohub,2013-10-24 02:51:00,
2013-10-23 22:52:00,35.2,35.1,30.08,NW,315,2.0,8.0,99,0.01,,,0.18,meteohub,2013-10-24 02:52:00,
2013-10-23 22:53:00,35.2,35.1,30.08,South,180,3.0,8.0,99,0.01,,,0.18,meteohub,2013-10-24 02:53:00,
2013-10-23 22:56:00,35.2,35.1,30.08,WSW,248,3.0,5.0,99,0.01,,,0.18,meteohub,2013-10-24 02:56:00,
2013-10-23 22:57:00,35.2,35.1,30.08,South,180,4.0,5.0,99,0.01,,,0.18,meteohub,2013-10-24 02:57:00,
2013-10-23 22:58:00,35.2,35.1,30.08,NW,315,5.0,5.0,99,0.01,,,0.18,meteohub,2013-10-24 02:58:00,
2013-10-23 23:00:00,35.2,35.1,30.09,North,0,4.0,5.0,99,0.01,,,0.18,meteohub,2013-10-24 03:00:00,
2013-10-23 23:01:00,35.2,35.1,30.09,North,0,4.0,5.0,99,0.01,,,0.18,meteohub,2013-10-24 03:01:00,
2013-10-23 23:02:00,35.2,35.1,30.08,WSW,248,4.0,5.0,99,0.01,,,0.18,meteohub,2013-10-24 03:02:00,
2013-10-23 23:04:00,35.2,35.1,30.08,WSW,248,2.0,5.0,99,0.01,,,0.18,meteohub,2013-10-24 03:04:00,
2013-10-23 23:06:00,35.1,34.9,30.08,SE,135,2.0,5.0,99,0.01,,,0.18,meteohub,2013-10-24 03:06:00,
2013-10-23 23:08:00,35.1,34.9,30.08,WSW,248,2.0,5.0,99,0.01,,,0.18,meteohub,2013-10-24 03:08:00,
2013-10-23 23:09:00,35.1,34.9,30.08,WSW,248,2.0,5.0,99,0.01,,,0.18,meteohub,2013-10-24 03:09:00,
2013-10-23 23:11:00,35.1,34.9,30.09,West,270,4.0,5.0,99,0.01,,,0.18,meteohub,2013-10-24 03:11:00,
2013-10-23 23:12:00,35.1,34.9,30.08,North,0,8.0,8.0,99,0.01,,,0.18,meteohub,2013-10-24 03:12:00,
2013-10-23 23:13:00,35.1,34.9,30.08,NW,315,3.0,5.0,99,0.01,,,0.18,meteohub,2013-10-24 03:13:00,
2013-10-23 23:15:00,35.1,34.9,30.08,West,270,3.0,5.0,99,0.01,,,0.18,meteohub,2013-10-24 03:15:00,
2013-10-23 23:16:00,35.1,34.9,30.08,WSW,248,4.0,8.0,99,0.00,,,0.18,meteohub,2013-10-24 03:16:00,
2013-10-23 23:17:00,35.1,34.9,30.08,WSW,248,2.0,8.0,99,0.00,,,0.18,meteohub,2013-10-24 03:17:00,
2013-10-23 23:19:00,35.1,34.9,30.08,WSW,248,2.0,8.0,99,0.00,,,0.18,meteohub,2013-10-24 03:19:00,
2013-10-23 23:20:00,34.9,34.7,30.08,West,270,1.0,8.0,99,0.00,,,0.18,meteohub,2013-10-24 03:20:00,
2013-10-23 23:21:00,35.1,34.9,30.08,North,0,2.0,8.0,99,0.00,,,0.18,meteohub,2013-10-24 03:21:00,
2013-10-23 23:22:00,34.9,34.7,30.08,West,270,3.0,8.0,99,0.00,,,0.18,meteohub,2013-10-24 03:22:00,
2013-10-23 23:23:00,34.9,34.7,30.08,West,270,3.0,8.0,99,0.00,,,0.18,meteohub,2013-10-24 03:23:00,
2013-10-23 23:24:00,34.9,34.7,30.08,West,270,3.0,8.0,99,0.00,,,0.18,meteohub,2013-10-24 03:24:00,
2013-10-23 23:25:00,34.9,34.7,30.08,North,0,2.0,8.0,99,0.00,,,0.18,meteohub,2013-10-24 03:25:00,
2013-10-23 23:26:00,34.9,34.7,30.08,West,270,5.0,8.0,99,0.00,,,0.18,meteohub,2013-10-24 03:26:00,
2013-10-23 23:28:00,34.9,34.7,30.08,West,270,4.0,8.0,99,0.00,,,0.18,meteohub,2013-10-24 03:28:00,
2013-10-23 23:29:00,34.9,34.7,30.08,West,270,4.0,8.0,99,0.00,,,0.18,meteohub,2013-10-24 03:29:00,
2013-10-23 23:30:00,34.9,34.7,30.08,West,270,3.0,5.0,99,0.00,,,0.18,meteohub,2013-10-24 03:30:00,
2013-10-23 23:31:00,34.9,34.7,30.08,WSW,248,8.0,8.0,99,0.00,,,0.18,meteohub,2013-10-24 03:31:00,
2013-10-23 23:32:00,34.9,34.7,30.08,WSW,248,2.0,5.0,99,0.00,,,0.18,meteohub,2013-10-24 03:32:00,
2013-10-23 23:34:00,34.9,34.7,30.08,WSW,248,1.0,5.0,99,0.00,,,0.18,meteohub,2013-10-24 03:34:00,
2013-10-23 23:35:00,34.9,34.7,30.08,North,0,4.0,8.0,99,0.00,,,0.18,meteohub,2013-10-24 03:35:00,
2013-10-23 23:36:00,34.9,34.7,30.08,North,0,3.0,8.0,99,0.00,,,0.18,meteohub,2013-10-24 03:36:00,
2013-10-23 23:39:00,34.9,34.7,30.08,West,270,1.0,8.0,99,0.00,,,0.18,meteohub,2013-10-24 03:39:00,
2013-10-23 23:40:00,34.9,34.7,30.08,West,270,2.0,8.0,99,0.00,,,0.18,meteohub,2013-10-24 03:40:00,
2013-10-23 23:42:00,34.9,34.7,30.08,West,270,1.0,8.0,99,0.00,,,0.18,meteohub,2013-10-24 03:42:00,
2013-10-23 23:45:00,34.9,34.7,30.08,NW,315,5.0,8.0,99,0.00,,,0.18,meteohub,2013-10-24 03:45:00,
2013-10-23 23:46:00,34.9,34.7,30.08,NW,315,5.0,8.0,99,0.00,,,0.18,meteohub,2013-10-24 03:46:00,
2013-10-23 23:47:00,34.9,34.7,30.08,WSW,248,4.0,8.0,99,0.00,,,0.18,meteohub,2013-10-24 03:47:00,
2013-10-23 23:48:00,34.9,34.7,30.08,NW,315,1.0,8.0,99,0.00,,,0.18,meteohub,2013-10-24 03:48:00,
2013-10-23 23:50:00,34.7,34.5,30.08,North,0,2.0,5.0,99,0.00,,,0.18,meteohub,2013-10-24 03:50:00,
2013-10-23 23:51:00,34.7,34.5,30.08,WSW,248,4.0,5.0,99,0.00,,,0.18,meteohub,2013-10-24 03:51:00,
2013-10-23 23:52:00,34.7,34.5,30.07,WSW,248,2.0,5.0,99,0.00,,,0.18,meteohub,2013-10-24 03:52:00,
2013-10-23 23:54:00,34.5,34.3,30.08,West,270,4.0,5.0,99,0.00,,,0.18,meteohub,2013-10-24 03:54:00,
2013-10-23 23:56:00,34.7,34.5,30.08,West,270,4.0,5.0,99,0.00,,,0.18,meteohub,2013-10-24 03:56:00,
2013-10-23 23:57:00,34.7,34.5,30.08,South,180,4.0,5.0,99,0.00,,,0.18,meteohub,2013-10-24 03:57:00,